Time,TemperatureF,DewpointF,PressureIn,WindDirection,WindDirectionDegrees,WindSpeedMPH,WindSpeedGustMPH,Humidity,HourlyPrecipIn,Conditions,Clouds,dailyrainin,SolarRadiationWatts/m^2,SoftwareType,DateUTC
2013-04-07 00:02:00,41.4,37.2,29.72,NW,315,4.0,5.0,85,0.00,,,0.00,0,Wunderground v.1.15,2013-04-07 05:02:00,
2013-04-07 00:04:00,41.3,37.4,29.72,NW,322,4.0,5.0,86,0.00,,,0.00,0,Wunderground v.1.15,2013-04-07 05:04:00,
2013-04-07 00:06:00,41.2,37.3,29.72,NNW,336,3.0,5.0,86,0.00,,,0.00,0,Wunderground v.1.15,2013-04-07 05:06:00,
2013-04-07 00:07:00,41.2,37.3,29.72,West,267,2.0,7.0,86,0.00,,,0.00,0,Wunderground v.1.15,2013-04-07 05:07:00,
2013-04-07 00:15:00,41.0,37.1,29.73,West,275,4.0,10.0,86,0.00,,,0.00,0,Wunderground v.1.15,2013-04-07 05:15:00,
2013-04-07 00:17:00,41.0,37.1,29.72,WNW,297,5.0,10.0,86,0.00,,,0.00,0,Wunderground v.1.15,2013-04-07 05:17:00,
2013-04-07 00:19:00,40.9,36.7,29.73,West,269,5.0,10.0,85,0.00,,,0.00,0,Wunderground v.1.15,2013-04-07 05:19:00,
2013-04-07 00:20:00,40.9,36.7,29.73,NNE,17,5.0,5.0,85,0.00,,,0.00,0,Wunderground v.1.15,2013-04-07 05:20:00,
2013-04-07 00:22:00,40.8,36.6,29.73,West,280,6.0,16.0,85,0.00,,,0.00,0,Wunderground v.1.15,2013-04-07 05:22:00,
2013-04-07 00:26:00,40.7,36.5,29.73,WNW,282,4.0,16.0,85,0.00,,,0.00,0,Wunderground v.1.15,2013-04-07 05:26:00,
2013-04-07 00:27:00,40.7,36.5,29.73,WNW,286,5.0,16.0,85,0.00,,,0.00,0,Wunderground v.1.15,2013-04-07 05:27:00,
2013-04-07 00:28:00,40.6,36.4,29.73,West,274,5.0,16.0,85,0.00,,,0.00,0,Wunderground v.1.15,2013-04-07 05:28:00,
2013-04-07 00:31:00,40.6,36.4,29.73,NNW,345,5.0,6.0,85,0.00,,,0.00,0,Wunderground v.1.15,2013-04-07 05:31:00,
2013-04-07 00:34:00,40.5,36.3,29.73,WNW,293,4.0,6.0,85,0.00,,,0.00,0,Wunderground v.1.15,2013-04-07 05:34:00,
2013-04-07 00:36:00,40.4,36.2,29.73,West,268,5.0,13.0,85,0.00,,,0.00,0,Wunderground v.1.15,2013-04-07 05:36:00,
2013-04-07 00:39:00,40.3,36.1,29.73,West,268,5.0,13.0,85,0.00,,,0.00,0,Wunderground v.1.15,2013-04-07 05:39:00,
2013-04-07 00:42:00,40.2,35.8,29.73,NW,314,5.0,8.0,84,0.00,,,0.00,0,Wunderground v.1.15,2013-04-07 05:42:00,
2013-04-07 00:44:00,40.2,35.8,29.73,NW,310,5.0,8.0,84,0.00,,,0.00,0,Wunderground v.1.15,2013-04-07 05:44:00,
2013-04-07 00:45:00,40.1,35.7,29.73,WNW,285,5.0,8.0,84,0.00,,,0.00,0,Wunderground v.1.15,2013-04-07 05:45:00,
2013-04-07 00:46:00,40.1,35.7,29.73,NNW,328,5.0,8.0,84,0.00,,,0.00,0,Wunderground v.1.15,2013-04-07 05:46:00,
2013-04-07 00:50:00,40.0,35.6,29.73,NW,306,5.0,5.0,84,0.00,,,0.00,0,Wunderground v.1.15,2013-04-07 05:50:00,
2013-04-07 00:51:00,39.9,35.5,29.74,WSW,243,5.0,10.0,84,0.00,,,0.00,0,Wunderground v.1.15,2013-04-07 05:51:00,
2013-04-07 00:52:00,39.9,35.8,29.74,NW,304,5.0,10.0,85,0.00,,,0.00,0,Wunderground v.1.15,2013-04-07 05:52:00,
2013-04-07 00:57:00,39.8,35.7,29.74,WNW,295,5.0,10.0,85,0.00,,,0.00,0,Wunderground v.1.15,2013-04-07 05:57:00,
2013-04-07 00:59:00,39.7,35.6,29.74,WNW,302,4.0,10.0,85,0.00,,,0.00,0,Wunderground v.1.15,2013-04-07 05:59:00,
2013-04-07 01:02:00,39.7,35.6,29.74,West,271,4.0,4.0,85,0.00,,,0.00,0,Wunderground v.1.15,2013-04-07 06:02:00,
2013-04-07 01:05:00,39.6,35.5,29.74,NW,321,4.0,6.0,85,0.00,,,0.00,0,Wunderground v.1.15,2013-04-07 06:05:00,
2013-04-07 01:06:00,39.6,35.5,29.74,NW,321,4.0,6.0,85,0.00,,,0.00,0,Wunderground v.1.15,2013-04-07 06:06:00,
2013-04-07 01:07:00,39.6,35.5,29.74,NW,323,4.0,6.0,85,0.00,,,0.00,0,Wunderground v.1.15,2013-04-07 06:07:00,
2013-04-07 01:08:00,39.5,35.4,29.74,West,281,3.0,6.0,85,0.00,,,0.00,0,Wunderground v.1.15,2013-04-07 06:08:00,
2013-04-07 01:12:00,39.5,35.7,29.74,NNW,336,3.0,7.0,86,0.00,,,0.00,0,Wunderground v.1.15,2013-04-07 06:12:00,
2013-04-07 01:13:00,39.5,35.4,29.74,NNW,338,3.0,7.0,85,0.00,,,0.00,0,Wunderground v.1.15,2013-04-07 06:13:00,
2013-04-07 01:14:00,39.5,35.4,29.74,SW,221,3.0,7.0,85,0.00,,,0.00,0,Wunderground v.1.15,2013-04-07 06:14:00,
2013-04-07 01:17:00,39.4,35.6,29.75,West,273,3.0,12.0,86,0.00,,,0.00,0,Wunderground v.1.15,2013-04-07 06:17:00,
2013-04-07 01:18:00,39.4,35.6,29.75,NW,308,3.0,12.0,86,0.00,,,0.00,0,Wunderground v.1.15,2013-04-07 06:18:00,
2013-04-07 01:19:00,39.3,35.5,29.75,NNW,332,3.0,12.0,86,0.00,,,0.00,0,Wunderground v.1.15,2013-04-07 06:19:00,
2013-04-07 01:24:00,39.3,35.5,29.75,West,274,3.0,5.0,86,0.00,,,0.00,0,Wunderground v.1.15,2013-04-07 06:24:00,
2013-04-07 01:25:00,39.3,35.5,29.75,West,268,4.0,9.0,86,0.00,,,0.00,0,Wunderground v.1.15,2013-04-07 06:25:00,
2013-04-07 01:30:00,39.2,35.1,29.76,West,279,4.0,4.0,85,0.00,,,0.00,0,Wunderground v.1.15,2013-04-07 06:30:00,
2013-04-07 01:33:00,39.1,35.0,29.76,NW,326,5.0,11.0,85,0.00,,,0.00,0,Wunderground v.1.15,2013-04-07 06:33:00,
2013-04-07 01:36:00,39.1,35.0,29.76,WNW,302,5.0,11.0,85,0.00,,,0.00,0,Wunderground v.1.15,2013-04-07 06:36:00,
2013-04-07 01:38:00,39.0,34.9,29.76,WSW,250,5.0,11.0,85,0.00,,,0.00,0,Wunderground v.1.15,2013-04-07 06:38:00,
2013-04-07 01:39:00,39.0,34.9,29.76,North,351,5.0,11.0,85,0.00,,,0.00,0,Wunderground v.1.15,2013-04-07 06:39:00,
2013-04-07 01:42:00,39.0,34.9,29.76,NNW,341,4.0,7.0,85,0.00,,,0.00,0,Wunderground v.1.15,2013-04-07 06:42:00,
2013-04-07 01:43:00,38.9,34.8,29.76,NNW,335,4.0,7.0,85,0.00,,,0.00,0,Wunderground v.1.15,2013-04-07 06:43:00,
2013-04-07 01:46:00,38.9,34.8,29.76,NW,315,4.0,7.0,85,0.00,,,0.00,0,Wunderground v.1.15,2013-04-07 06:46:00,
2013-04-07 01:49:00,38.8,34.7,29.76,WNW,289,3.0,7.0,85,0.00,,,0.00,0,Wunderground v.1.15,2013-04-07 06:49:00,
2013-04-07 01:50:00,38.8,34.7,29.76,WNW,294,3.0,3.0,85,0.00,,,0.00,0,Wunderground v.1.15,2013-04-07 06:50:00,
2013-04-07 01:51:00,38.8,34.7,29.77,West,281,3.0,6.0,85,0.00,,,0.00,0,Wunderground v.1.15,2013-04-07 06:51:00,
2013-04-07 01:54:00,38.7,34.6,29.77,West,279,3.0,6.0,85,0.00,,,0.00,0,Wunderground v.1.15,2013-04-07 06:54:00,
2013-04-07 01:56:00,38.7,34.6,29.77,NW,311,4.0,6.0,85,0.00,,,0.00,0,Wunderground v.1.15,2013-04-07 06:56:00,
2013-04-07 01:59:00,38.7,34.6,29.76,NW,325,4.0,6.0,85,0.00,,,0.00,0,Wunderground v.1.15,2013-04-07 06:59:00,
2013-04-07 02:00:00,38.6,34.5,29.76,NW,304,3.0,6.0,85,0.00,,,0.00,0,Wunderground v.1.15,2013-04-07 07:00:00,
2013-04-07 02:04:00,38.5,34.4,29.77,NNW,335,5.0,11.0,85,0.00,,,0.00,0,Wunderground v.1.15,2013-04-07 07:04:00,
2013-04-07 02:07:00,38.4,34.3,29.77,WNW,302,5.0,11.0,85,0.00,,,0.00,0,Wunderground v.1.15,2013-04-07 07:07:00,
2013-04-07 02:08:00,38.4,34.3,29.77,NNW,327,5.0,11.0,85,0.00,,,0.00,0,Wunderground v.1.15,2013-04-07 07:08:00,
2013-04-07 02:11:00,38.3,34.2,29.77,NNW,328,6.0,7.0,85,0.00,,,0.00,0,Wunderground v.1.15,2013-04-07 07:11:00,
2013-04-07 02:16:00,38.1,34.3,29.77,West,267,5.0,7.0,86,0.00,,,0.00,0,Wunderground v.1.15,2013-04-07 07:16:00,
2013-04-07 02:17:00,38.1,34.3,29.77,NNW,334,5.0,7.0,86,0.00,,,0.00,0,Wunderground v.1.15,2013-04-07 07:17:00,
2013-04-07 02:18:00,38.1,34.3,29.78,WSW,254,5.0,7.0,86,0.00,,,0.00,0,Wunderground v.1.15,2013-04-07 07:18:00,
2013-04-07 02:22:00,38.0,33.9,29.78,NW,323,5.0,6.0,85,0.00,,,0.00,0,Wunderground v.1.15,2013-04-07 07:22:00,
2013-04-07 02:24:00,37.9,33.8,29.78,WNW,298,4.0,6.0,85,0.00,,,0.00,0,Wunderground v.1.15,2013-04-07 07:24:00,
2013-04-07 02:25:00,37.9,33.8,29.78,NW,307,5.0,6.0,85,0.00,,,0.00,0,Wunderground v.1.15,2013-04-07 07:25:00,
2013-04-07 02:27:00,37.9,33.8,29.78,WSW,244,4.0,9.0,85,0.00,,,0.00,0,Wunderground v.1.15,2013-04-07 07:27:00,
2013-04-07 02:28:00,37.8,33.7,29.78,NW,320,4.0,10.0,85,0.00,,,0.00,0,Wunderground v.1.15,2013-04-07 07:28:00,
2013-04-07 02:29:00,37.8,33.7,29.78,WNW,285,5.0,10.0,85,0.00,,,0.00,0,Wunderground v.1.15,2013-04-07 07:29:00,
2013-04-07 02:33:00,37.8,33.7,29.78,NW,325,5.0,7.0,85,0.00,,,0.00,0,Wunderground v.1.15,2013-04-07 07:33:00,
2013-04-07 02:35:00,37.8,33.7,29.78,NW,307,4.0,7.0,85,0.00,,,0.00,0,Wunderground v.1.15,2013-04-07 07:35:00,
2013-04-07 02:37:00,37.7,33.6,29.79,NNW,331,5.0,7.0,85,0.00,,,0.00,0,Wunderground v.1.15,2013-04-07 07:37:00,
2013-04-07 02:38:00,37.7,33.6,29.79,NNW,334,5.0,7.0,85,0.00,,,0.00,0,Wunderground v.1.15,2013-04-07 07:38:00,
2013-04-07 02:39:00,37.7,33.6,29.79,WSW,248,5.0,7.0,85,0.00,,,0.00,0,Wunderground v.1.15,2013-04-07 07:39:00,
2013-04-07 02:41:00,37.7,33.6,29.79,NW,313,4.0,9.0,85,0.00,,,0.00,0,Wunderground v.1.15,2013-04-07 07:41:00,
2013-04-07 02:42:00,37.6,33.5,29.79,West,277,4.0,9.0,85,0.00,,,0.00,0,Wunderground v.1.15,2013-04-07 07:42:00,
2013-04-07 02:46:00,37.5,33.4,29.79,WSW,240,6.0,9.0,85,0.00,,,0.00,0,Wunderground v.1.15,2013-04-07 07:46:00,
2013-04-07 02:47:00,37.5,33.1,29.79,West,273,5.0,9.0,84,0.00,,,0.00,0,Wunderground v.1.15,2013-04-07 07:47:00,
2013-04-07 02:48:00,37.4,33.0,29.79,West,269,6.0,9.0,84,0.00,,,0.00,0,Wunderground v.1.15,2013-04-07 07:48:00,
2013-04-07 02:49:00,37.4,33.0,29.79,NNW,347,6.0,9.0,84,0.00,,,0.00,0,Wunderground v.1.15,2013-04-07 07:49:00,
2013-04-07 02:54:00,37.3,32.9,29.79,NW,325,6.0,9.0,84,0.00,,,0.00,0,Wunderground v.1.15,2013-04-07 07:54:00,
2013-04-07 02:55:00,37.3,32.9,29.79,NW,317,6.0,9.0,84,0.00,,,0.00,0,Wunderground v.1.15,2013-04-07 07:55:00,
2013-04-07 02:56:00,37.3,32.9,29.79,WSW,257,5.0,9.0,84,0.00,,,0.00,0,Wunderground v.1.15,2013-04-07 07:56:00,
2013-04-07 02:57:00,37.3,32.9,29.79,NNW,335,5.0,9.0,84,0.00,,,0.00,0,Wunderground v.1.15,2013-04-07 07:57:00,
2013-04-07 03:00:00,37.3,32.9,29.79,WNW,291,5.0,5.0,84,0.00,,,0.00,0,Wunderground v.1.15,2013-04-07 08:00:00,
2013-04-07 03:04:00,37.2,32.8,29.80,WNW,300,3.0,5.0,84,0.00,,,0.00,0,Wunderground v.1.15,2013-04-07 08:04:00,
2013-04-07 03:05:00,37.1,32.7,29.80,WNW,300,3.0,5.0,84,0.00,,,0.00,0,Wunderground v.1.15,2013-04-07 08:05:00,
2013-04-07 03:07:00,37.2,32.8,29.80,WNW,288,3.0,5.0,84,0.00,,,0.00,0,Wunderground v.1.15,2013-04-07 08:07:00,
2013-04-07 03:09:00,37.1,32.7,29.80,West,266,2.0,5.0,84,0.00,,,0.00,0,Wunderground v.1.15,2013-04-07 08:09:00,
2013-04-07 03:11:00,37.1,32.7,29.80,NW,306,2.0,3.0,84,0.00,,,0.00,0,Wunderground v.1.15,2013-04-07 08:11:00,
2013-04-07 03:15:00,37.1,32.7,29.80,WNW,287,2.0,5.0,84,0.00,,,0.00,0,Wunderground v.1.15,2013-04-07 08:15:00,
2013-04-07 03:16:00,37.0,32.6,29.80,West,259,2.0,5.0,84,0.00,,,0.00,0,Wunderground v.1.15,2013-04-07 08:16:00,
2013-04-07 03:18:00,37.0,32.6,29.80,NW,315,3.0,5.0,84,0.00,,,0.00,0,Wunderground v.1.15,2013-04-07 08:18:00,
2013-04-07 03:21:00,37.0,32.6,29.80,WNW,303,3.0,4.0,84,0.00,,,0.00,0,Wunderground v.1.15,2013-04-07 08:21:00,
2013-04-07 03:23:00,37.0,32.6,29.80,NNW,333,4.0,5.0,84,0.00,,,0.00,0,Wunderground v.1.15,2013-04-07 08:23:00,
2013-04-07 03:24:00,37.0,32.6,29.80,NNW,332,4.0,5.0,84,0.00,,,0.00,0,Wunderground v.1.15,2013-04-07 08:24:00,
2013-04-07 03:27:00,37.0,32.6,29.81,West,280,3.0,5.0,84,0.00,,,0.00,0,Wunderground v.1.15,2013-04-07 08:27:00,
2013-04-07 03:28:00,37.0,32.6,29.81,WNW,293,3.0,5.0,84,0.00,,,0.00,0,Wunderground v.1.15,2013-04-07 08:28:00,
2013-04-07 03:33:00,37.0,32.6,29.81,WSW,252,3.0,6.0,84,0.00,,,0.00,0,Wunderground v.1.15,2013-04-07 08:33:00,
2013-04-07 03:34:00,37.0,32.6,29.81,West,259,3.0,6.0,84,0.00,,,0.00,0,Wunderground v.1.15,2013-04-07 08:34:00,
2013-04-07 03:35:00,37.0,32.6,29.81,NNW,330,3.0,6.0,84,0.00,,,0.00,0,Wunderground v.1.15,2013-04-07 08:35:00,
2013-04-07 03:40:00,36.9,32.5,29.81,WNW,294,3.0,8.0,84,0.00,,,0.00,0,Wunderground v.1.15,2013-04-07 08:40:00,
2013-04-07 03:42:00,36.9,32.5,29.81,WNW,293,3.0,8.0,84,0.00,,,0.00,0,Wunderground v.1.15,2013-04-07 08:42:00,
2013-04-07 03:43:00,36.9,32.5,29.81,West,281,3.0,8.0,84,0.00,,,0.00,0,Wunderground v.1.15,2013-04-07 08:43:00,
2013-04-07 03:44:00,36.9,32.5,29.81,West,281,3.0,8.0,84,0.00,,,0.00,0,Wunderground v.1.15,2013-04-07 08:44:00,
2013-04-07 03:46:00,36.9,32.5,29.81,NNW,341,3.0,8.0,84,0.00,,,0.00,0,Wunderground v.1.15,2013-04-07 08:46:00,
2013-04-07 03:49:00,36.9,32.5,29.81,WNW,302,3.0,10.0,84,0.00,,,0.00,0,Wunderground v.1.15,2013-04-07 08:49:00,
2013-04-07 03:51:00,36.8,32.1,29.81,WNW,286,4.0,7.0,83,0.00,,,0.00,0,Wunderground v.1.15,2013-04-07 08:51:00,
2013-04-07 03:52:00,36.8,32.1,29.81,NNW,343,4.0,7.0,83,0.00,,,0.00,0,Wunderground v.1.15,2013-04-07 08:52:00,
2013-04-07 03:54:00,36.8,32.1,29.81,NW,306,5.0,7.0,83,0.00,,,0.00,0,Wunderground v.1.15,2013-04-07 08:54:00,
2013-04-07 03:56:00,36.8,32.1,29.81,WNW,298,5.0,7.0,83,0.00,,,0.00,0,Wunderground v.1.15,2013-04-07 08:56:00,
2013-04-07 03:57:00,36.8,32.1,29.81,NNW,344,5.0,9.0,83,0.00,,,0.00,0,Wunderground v.1.15,2013-04-07 08:57:00,
2013-04-07 04:00:00,36.8,32.1,29.82,NW,313,4.0,4.0,83,0.00,,,0.00,0,Wunderground v.1.15,2013-04-07 09:00:00,
2013-04-07 04:02:00,36.7,32.0,29.82,West,278,3.0,4.0,83,0.00,,,0.00,0,Wunderground v.1.15,2013-04-07 09:02:00,
2013-04-07 04:03:00,36.7,32.3,29.82,West,278,3.0,4.0,84,0.00,,,0.00,0,Wunderground v.1.15,2013-04-07 09:03:00,
2013-04-07 04:06:00,36.6,32.2,29.82,WNW,294,2.0,5.0,84,0.00,,,0.00,0,Wunderground v.1.15,2013-04-07 09:06:00,
2013-04-07 04:08:00,36.6,32.2,29.82,West,269,2.0,5.0,84,0.00,,,0.00,0,Wunderground v.1.15,2013-04-07 09:08:00,
2013-04-07 04:10:00,36.6,32.2,29.82,WNW,288,2.0,3.0,84,0.00,,,0.00,0,Wunderground v.1.15,2013-04-07 09:10:00,
2013-04-07 04:13:00,36.6,32.2,29.82,NW,314,2.0,4.0,84,0.00,,,0.00,0,Wunderground v.1.15,2013-04-07 09:13:00,
2013-04-07 04:15:00,36.6,32.2,29.82,NW,313,2.0,4.0,84,0.00,,,0.00,0,Wunderground v.1.15,2013-04-07 09:15:00,
2013-04-07 04:16:00,36.6,32.2,29.82,WNW,282,3.0,6.0,84,0.00,,,0.00,0,Wunderground v.1.15,2013-04-07 09:16:00,
2013-04-07 04:17:00,36.6,32.2,29.83,WNW,282,3.0,6.0,84,0.00,,,0.00,0,Wunderground v.1.15,2013-04-07 09:17:00,
2013-04-07 04:20:00,36.5,32.1,29.83,WNW,296,3.0,3.0,84,0.00,,,0.00,0,Wunderground v.1.15,2013-04-07 09:20:00,
2013-04-07 04:22:00,36.6,32.2,29.83,WNW,296,2.0,3.0,84,0.00,,,0.00,0,Wunderground v.1.15,2013-04-07 09:22:00,
2013-04-07 04:25:00,36.5,32.1,29.83,West,265,2.0,5.0,84,0.00,,,0.00,0,Wunderground v.1.15,2013-04-07 09:25:00,
2013-04-07 04:29:00,36.5,31.8,29.83,WNW,302,2.0,8.0,83,0.00,,,0.00,0,Wunderground v.1.15,2013-04-07 09:29:00,
2013-04-07 04:33:00,36.5,31.8,29.83,West,275,3.0,3.0,83,0.00,,,0.00,0,Wunderground v.1.15,2013-04-07 09:33:00,
2013-04-07 04:35:00,36.5,31.8,29.83,West,261,3.0,5.0,83,0.00,,,0.00,0,Wunderground v.1.15,2013-04-07 09:35:00,
2013-04-07 04:37:00,36.4,31.7,29.84,WSW,245,3.0,5.0,83,0.00,,,0.00,0,Wunderground v.1.15,2013-04-07 09:37:00,
2013-04-07 04:39:00,36.4,31.7,29.84,WSW,245,3.0,5.0,83,0.00,,,0.00,0,Wunderground v.1.15,2013-04-07 09:39:00,
2013-04-07 04:41:00,36.4,31.7,29.84,West,272,2.0,4.0,83,0.00,,,0.00,0,Wunderground v.1.15,2013-04-07 09:41:00,
2013-04-07 04:43:00,36.4,31.7,29.84,WNW,298,2.0,4.0,83,0.00,,,0.00,0,Wunderground v.1.15,2013-04-07 09:43:00,
2013-04-07 04:45:00,36.4,31.7,29.84,WNW,298,2.0,4.0,83,0.00,,,0.00,0,Wunderground v.1.15,2013-04-07 09:45:00,
2013-04-07 04:47:00,36.4,32.0,29.84,WNW,298,1.0,4.0,84,0.00,,,0.00,0,Wunderground v.1.15,2013-04-07 09:47:00,
2013-04-07 04:49:00,36.4,32.0,29.84,WNW,284,1.0,4.0,84,0.00,,,0.00,0,Wunderground v.1.15,2013-04-07 09:49:00,
2013-04-07 04:53:00,36.4,31.7,29.84,WNW,298,2.0,7.0,83,0.00,,,0.00,0,Wunderground v.1.15,2013-04-07 09:53:00,
2013-04-07 04:54:00,36.4,31.7,29.84,WNW,298,2.0,7.0,83,0.00,,,0.00,0,Wunderground v.1.15,2013-04-07 09:54:00,
2013-04-07 04:58:00,36.3,31.6,29.85,SW,223,3.0,7.0,83,0.00,,,0.00,0,Wunderground v.1.15,2013-04-07 09:58:00,
2013-04-07 04:59:00,36.3,31.6,29.85,SW,223,3.0,7.0,83,0.00,,,0.00,0,Wunderground v.1.15,2013-04-07 09:59:00,
2013-04-07 05:00:00,36.3,31.6,29.85,SW,223,3.0,3.0,83,0.00,,,0.00,0,Wunderground v.1.15,2013-04-07 10:00:00,
2013-04-07 05:03:00,36.3,31.9,29.85,NNW,327,2.0,3.0,84,0.00,,,0.00,0,Wunderground v.1.15,2013-04-07 10:03:00,
2013-04-07 05:04:00,36.3,31.6,29.85,NNW,327,2.0,3.0,83,0.00,,,0.00,0,Wunderground v.1.15,2013-04-07 10:04:00,
2013-04-07 05:05:00,36.3,31.6,29.85,NNW,327,1.0,3.0,83,0.00,,,0.00,0,Wunderground v.1.15,2013-04-07 10:05:00,
2013-04-07 05:07:00,36.3,31.6,29.85,NNW,327,1.0,3.0,83,0.00,,,0.00,0,Wunderground v.1.15,2013-04-07 10:07:00,
2013-04-07 05:11:00,36.2,31.5,29.85,SW,220,1.0,3.0,83,0.00,,,0.00,0,Wunderground v.1.15,2013-04-07 10:11:00,
2013-04-07 05:12:00,36.3,31.6,29.85,SW,220,1.0,3.0,83,0.00,,,0.00,0,Wunderground v.1.15,2013-04-07 10:12:00,
2013-04-07 05:14:00,36.2,31.5,29.85,SW,220,1.0,3.0,83,0.00,,,0.00,0,Wunderground v.1.15,2013-04-07 10:14:00,
2013-04-07 05:17:00,36.2,31.5,29.86,SW,220,1.0,3.0,83,0.00,,,0.00,0,Wunderground v.1.15,2013-04-07 10:17:00,
2013-04-07 05:20:00,36.2,31.5,29.86,NNW,336,1.0,3.0,83,0.00,,,0.00,0,Wunderground v.1.15,2013-04-07 10:20:00,
2013-04-07 05:23:00,36.2,31.5,29.86,NNW,329,1.0,3.0,83,0.00,,,0.00,0,Wunderground v.1.15,2013-04-07 10:23:00,
2013-04-07 05:24:00,36.2,31.5,29.86,NNW,329,1.0,3.0,83,0.00,,,0.00,0,Wunderground v.1.15,2013-04-07 10:24:00,
2013-04-07 05:25:00,36.2,31.5,29.86,NNW,329,1.0,3.0,83,0.00,,,0.00,0,Wunderground v.1.15,2013-04-07 10:25:00,
2013-04-07 05:28:00,36.2,31.5,29.86,NNW,329,1.0,3.0,83,0.00,,,0.00,0,Wunderground v.1.15,2013-04-07 10:28:00,
2013-04-07 05:31:00,36.2,31.5,29.87,NNW,329,1.0,1.0,83,0.00,,,0.00,0,Wunderground v.1.15,2013-04-07 10:31:00,
2013-04-07 05:32:00,36.2,31.5,29.87,NNW,329,1.0,1.0,83,0.00,,,0.00,0,Wunderground v.1.15,2013-04-07 10:32:00,
2013-04-07 05:34:00,36.2,31.5,29.87,NNW,329,1.0,1.0,83,0.00,,,0.00,0,Wunderground v.1.15,2013-04-07 10:34:00,
2013-04-07 05:37:00,36.2,31.5,29.87,NNW,329,0.0,1.0,83,0.00,,,0.00,0,Wunderground v.1.15,2013-04-07 10:37:00,
2013-04-07 05:41:00,36.2,31.8,29.87,NNW,329,0.0,0.0,84,0.00,,,0.00,0,Wunderground v.1.15,2013-04-07 10:41:00,
2013-04-07 05:43:00,36.2,31.8,29.86,NNW,329,0.0,0.0,84,0.00,,,0.00,0,Wunderground v.1.15,2013-04-07 10:43:00,
2013-04-07 05:44:00,36.2,31.8,29.86,NNW,329,0.0,0.0,84,0.00,,,0.00,0,Wunderground v.1.15,2013-04-07 10:44:00,
2013-04-07 05:46:00,36.2,31.8,29.87,NNW,329,0.0,4.0,84,0.00,,,0.00,0,Wunderground v.1.15,2013-04-07 10:46:00,
2013-04-07 05:47:00,36.2,31.8,29.87,West,267,0.0,4.0,84,0.00,,,0.00,0,Wunderground v.1.15,2013-04-07 10:47:00,
2013-04-07 05:52:00,36.2,31.5,29.87,West,269,0.0,0.0,83,0.00,,,0.00,0,Wunderground v.1.15,2013-04-07 10:52:00,
2013-04-07 05:53:00,36.2,31.8,29.87,West,269,1.0,2.0,84,0.00,,,0.00,0,Wunderground v.1.15,2013-04-07 10:53:00,
2013-04-07 05:58:00,36.2,31.8,29.88,WNW,302,1.0,2.0,84,0.00,,,0.00,0,Wunderground v.1.15,2013-04-07 10:58:00,
2013-04-07 05:59:00,36.2,31.8,29.88,NW,316,1.0,3.0,84,0.00,,,0.00,0,Wunderground v.1.15,2013-04-07 10:59:00,
2013-04-07 06:00:00,36.2,31.8,29.88,NNW,340,1.0,2.0,84,0.00,,,0.00,0,Wunderground v.1.15,2013-04-07 11:00:00,
2013-04-07 06:02:00,36.2,31.5,29.87,NW,319,1.0,6.0,83,0.00,,,0.00,0,Wunderground v.1.15,2013-04-07 11:02:00,
2013-04-07 06:05:00,36.2,31.5,29.88,NW,319,2.0,6.0,83,0.00,,,0.00,0,Wunderground v.1.15,2013-04-07 11:05:00,
2013-04-07 06:07:00,36.2,31.5,29.88,NW,319,2.0,6.0,83,0.00,,,0.00,0,Wunderground v.1.15,2013-04-07 11:07:00,
2013-04-07 06:09:00,36.2,31.5,29.88,NW,319,2.0,6.0,83,0.00,,,0.00,0,Wunderground v.1.15,2013-04-07 11:09:00,
2013-04-07 06:10:00,36.2,31.5,29.88,NW,319,2.0,2.0,83,0.00,,,0.00,0,Wunderground v.1.15,2013-04-07 11:10:00,
2013-04-07 06:12:00,36.2,31.8,29.88,NW,319,1.0,2.0,84,0.00,,,0.00,0,Wunderground v.1.15,2013-04-07 11:12:00,
2013-04-07 06:14:00,36.2,31.8,29.88,NW,308,1.0,5.0,84,0.00,,,0.00,0,Wunderground v.1.15,2013-04-07 11:14:00,
2013-04-07 06:16:00,36.2,31.8,29.88,WNW,289,1.0,5.0,84,0.00,,,0.00,0,Wunderground v.1.15,2013-04-07 11:16:00,
2013-04-07 06:19:00,36.2,31.8,29.89,WNW,289,1.0,5.0,84,0.00,,,0.00,0,Wunderground v.1.15,2013-04-07 11:19:00,
2013-04-07 06:21:00,36.2,31.8,29.89,WNW,289,1.0,1.0,84,0.00,,,0.00,0,Wunderground v.1.15,2013-04-07 11:21:00,
2013-04-07 06:22:00,36.2,31.8,29.89,WNW,289,1.0,1.0,84,0.00,,,0.00,0,Wunderground v.1.15,2013-04-07 11:22:00,
2013-04-07 06:27:00,36.2,31.8,29.89,WSW,254,1.0,2.0,84,0.00,,,0.00,0,Wunderground v.1.15,2013-04-07 11:27:00,
2013-04-07 06:28:00,36.2,31.8,29.89,WSW,254,1.0,2.0,84,0.00,,,0.00,0,Wunderground v.1.15,2013-04-07 11:28:00,
2013-04-07 06:33:00,36.2,31.8,29.90,West,260,1.0,2.0,84,0.00,,,0.00,0,Wunderground v.1.15,2013-04-07 11:33:00,
2013-04-07 06:34:00,36.2,31.8,29.90,West,275,1.0,4.0,84,0.00,,,0.00,0,Wunderground v.1.15,2013-04-07 11:34:00,
2013-04-07 06:36:00,36.3,31.6,29.90,West,275,2.0,4.0,83,0.00,,,0.00,0,Wunderground v.1.15,2013-04-07 11:36:00,
2013-04-07 06:41:00,36.2,31.5,29.90,West,275,1.0,1.0,83,0.00,,,0.00,0,Wunderground v.1.15,2013-04-07 11:41:00,
2013-04-07 06:42:00,36.2,31.8,29.90,West,275,1.0,1.0,84,0.00,,,0.00,0,Wunderground v.1.15,2013-04-07 11:42:00,
2013-04-07 06:44:00,36.2,31.8,29.90,West,275,1.0,1.0,84,0.00,,,0.00,0,Wunderground v.1.15,2013-04-07 11:44:00,
2013-04-07 06:47:00,36.2,31.8,29.91,West,275,0.0,1.0,84,0.00,,,0.00,5,Wunderground v.1.15,2013-04-07 11:47:00,
2013-04-07 06:48:00,36.2,31.8,29.91,West,275,0.0,2.0,84,0.00,,,0.00,5,Wunderground v.1.15,2013-04-07 11:48:00,
2013-04-07 06:50:00,36.2,31.8,29.91,West,275,0.0,1.0,84,0.00,,,0.00,5,Wunderground v.1.15,2013-04-07 11:50:00,
2013-04-07 06:53:00,36.2,31.8,29.91,West,275,0.0,2.0,84,0.00,,,0.00,7,Wunderground v.1.15,2013-04-07 11:53:00,
2013-04-07 06:56:00,36.3,31.6,29.91,NW,305,1.0,4.0,83,0.00,,,0.00,11,Wunderground v.1.15,2013-04-07 11:56:00,
2013-04-07 06:57:00,36.3,31.6,29.91,NW,305,1.0,4.0,83,0.00,,,0.00,9,Wunderground v.1.15,2013-04-07 11:57:00,
2013-04-07 06:58:00,36.3,31.9,29.91,NW,305,1.0,4.0,84,0.00,,,0.00,11,Wunderground v.1.15,2013-04-07 11:58:00,
2013-04-07 07:00:00,36.3,31.6,29.91,NW,305,1.0,2.0,83,0.00,,,0.00,11,Wunderground v.1.15,2013-04-07 12:00:00,
2013-04-07 07:01:00,36.4,31.7,29.91,NW,305,1.0,2.0,83,0.00,,,0.00,12,Wunderground v.1.15,2013-04-07 12:01:00,
2013-04-07 07:03:00,36.4,31.7,29.91,WNW,286,2.0,4.0,83,0.00,,,0.00,14,Wunderground v.1.15,2013-04-07 12:03:00,
2013-04-07 07:05:00,36.4,31.7,29.91,WNW,289,2.0,4.0,83,0.00,,,0.00,16,Wunderground v.1.15,2013-04-07 12:05:00,
2013-04-07 07:09:00,36.4,31.7,29.91,WNW,299,2.0,4.0,83,0.00,,,0.00,16,Wunderground v.1.15,2013-04-07 12:09:00,
2013-04-07 07:11:00,36.4,31.7,29.91,WNW,299,2.0,2.0,83,0.00,,,0.00,18,Wunderground v.1.15,2013-04-07 12:11:00,
2013-04-07 07:12:00,36.5,31.8,29.91,West,262,2.0,5.0,83,0.00,,,0.00,18,Wunderground v.1.15,2013-04-07 12:12:00,
2013-04-07 07:14:00,36.5,31.8,29.91,NW,309,2.0,5.0,83,0.00,,,0.00,21,Wunderground v.1.15,2013-04-07 12:14:00,
2013-04-07 07:15:00,36.5,31.8,29.91,NW,322,2.0,5.0,83,0.00,,,0.00,23,Wunderground v.1.15,2013-04-07 12:15:00,
2013-04-07 07:17:00,36.5,31.8,29.91,NW,325,2.0,5.0,83,0.00,,,0.00,28,Wunderground v.1.15,2013-04-07 12:17:00,
2013-04-07 07:19:00,36.5,31.8,29.91,NW,325,2.0,5.0,83,0.00,,,0.00,33,Wunderground v.1.15,2013-04-07 12:19:00,
2013-04-07 07:23:00,36.6,31.9,29.91,WNW,298,2.0,4.0,83,0.00,,,0.00,40,Wunderground v.1.15,2013-04-07 12:23:00,
2013-04-07 07:24:00,36.6,31.9,29.91,NNW,340,2.0,6.0,83,0.00,,,0.00,40,Wunderground v.1.15,2013-04-07 12:24:00,
2013-04-07 07:25:00,36.6,31.9,29.91,NW,321,2.0,6.0,83,0.00,,,0.00,39,Wunderground v.1.15,2013-04-07 12:25:00,
2013-04-07 07:27:00,36.7,31.7,29.91,NW,321,2.0,6.0,82,0.00,,,0.00,47,Wunderground v.1.15,2013-04-07 12:27:00,
2013-04-07 07:28:00,36.7,31.7,29.91,NW,321,2.0,6.0,82,0.00,,,0.00,49,Wunderground v.1.15,2013-04-07 12:28:00,
2013-04-07 07:33:00,36.7,31.7,29.92,NW,320,2.0,4.0,82,0.00,,,0.00,44,Wunderground v.1.15,2013-04-07 12:33:00,
2013-04-07 07:34:00,36.7,31.7,29.92,NW,320,2.0,4.0,82,0.00,,,0.00,44,Wunderground v.1.15,2013-04-07 12:34:00,
2013-04-07 07:39:00,36.8,31.8,29.92,NNW,329,2.0,4.0,82,0.00,,,0.00,47,Wunderground v.1.15,2013-04-07 12:39:00,
2013-04-07 07:40:00,36.8,31.8,29.92,NNW,328,2.0,3.0,82,0.00,,,0.00,47,Wunderground v.1.15,2013-04-07 12:40:00,
2013-04-07 07:45:00,36.8,31.8,29.92,NNW,328,2.0,4.0,82,0.00,,,0.00,54,Wunderground v.1.15,2013-04-07 12:45:00,
2013-04-07 07:46:00,36.8,31.8,29.92,NNW,328,2.0,4.0,82,0.00,,,0.00,53,Wunderground v.1.15,2013-04-07 12:46:00,
2013-04-07 07:48:00,36.9,31.9,29.92,WNW,295,2.0,4.0,82,0.00,,,0.00,62,Wunderground v.1.15,2013-04-07 12:48:00,
2013-04-07 07:52:00,36.9,31.9,29.93,NW,311,3.0,7.0,82,0.00,,,0.00,72,Wunderground v.1.15,2013-04-07 12:52:00,
2013-04-07 07:53:00,36.9,31.9,29.93,NW,308,3.0,7.0,82,0.00,,,0.00,70,Wunderground v.1.15,2013-04-07 12:53:00,
2013-04-07 07:56:00,37.0,32.0,29.93,WNW,297,3.0,7.0,82,0.00,,,0.00,65,Wunderground v.1.15,2013-04-07 12:56:00,
2013-04-07 07:59:00,37.0,32.0,29.93,West,277,3.0,7.0,82,0.00,,,0.00,69,Wunderground v.1.15,2013-04-07 12:59:00,
2013-04-07 08:02:00,37.1,32.1,29.93,NW,311,3.0,5.0,82,0.00,,,0.00,67,Wunderground v.1.15,2013-04-07 13:02:00,
2013-04-07 08:03:00,37.1,32.1,29.94,West,264,3.0,5.0,82,0.00,,,0.00,70,Wunderground v.1.15,2013-04-07 13:03:00,
2013-04-07 08:04:00,37.1,32.1,29.94,West,265,3.0,5.0,82,0.00,,,0.00,74,Wunderground v.1.15,2013-04-07 13:04:00,
2013-04-07 08:06:00,37.1,32.1,29.94,NW,313,3.0,5.0,82,0.00,,,0.00,76,Wunderground v.1.15,2013-04-07 13:06:00,
2013-04-07 08:08:00,37.2,32.2,29.94,WSW,249,2.0,5.0,82,0.00,,,0.00,74,Wunderground v.1.15,2013-04-07 13:08:00,
2013-04-07 08:11:00,37.2,32.2,29.94,WSW,250,2.0,2.0,82,0.00,,,0.00,76,Wunderground v.1.15,2013-04-07 13:11:00,
2013-04-07 08:16:00,37.3,32.3,29.94,WNW,297,2.0,7.0,82,0.00,,,0.00,76,Wunderground v.1.15,2013-04-07 13:16:00,
2013-04-07 08:17:00,37.3,32.3,29.94,WSW,247,2.0,7.0,82,0.00,,,0.00,76,Wunderground v.1.15,2013-04-07 13:17:00,
2013-04-07 08:19:00,37.2,32.2,29.94,WNW,292,3.0,7.0,82,0.00,,,0.00,79,Wunderground v.1.15,2013-04-07 13:19:00,
2013-04-07 08:22:00,37.2,31.9,29.95,West,265,4.0,7.0,81,0.00,,,0.00,83,Wunderground v.1.15,2013-04-07 13:22:00,
2013-04-07 08:25:00,37.2,31.9,29.95,WSW,244,4.0,7.0,81,0.00,,,0.00,86,Wunderground v.1.15,2013-04-07 13:25:00,
2013-04-07 08:26:00,37.2,31.9,29.95,NW,315,4.0,7.0,81,0.00,,,0.00,86,Wunderground v.1.15,2013-04-07 13:26:00,
2013-04-07 08:27:00,37.2,31.9,29.95,WNW,287,4.0,7.0,81,0.00,,,0.00,88,Wunderground v.1.15,2013-04-07 13:27:00,
2013-04-07 08:31:00,37.3,32.0,29.95,WNW,296,4.0,8.0,81,0.00,,,0.00,98,Wunderground v.1.15,2013-04-07 13:31:00,
2013-04-07 08:32:00,37.3,32.0,29.95,NW,319,5.0,8.0,81,0.00,,,0.00,102,Wunderground v.1.15,2013-04-07 13:32:00,
2013-04-07 08:34:00,37.3,31.7,29.95,NW,320,4.0,8.0,80,0.00,,,0.00,107,Wunderground v.1.15,2013-04-07 13:34:00,
2013-04-07 08:37:00,37.3,32.0,29.95,NNW,343,4.0,8.0,81,0.00,,,0.00,114,Wunderground v.1.15,2013-04-07 13:37:00,
2013-04-07 08:39:00,37.4,31.8,29.95,NW,313,4.0,8.0,80,0.00,,,0.00,113,Wunderground v.1.15,2013-04-07 13:39:00,
2013-04-07 08:42:00,37.3,31.7,29.95,WNW,298,5.0,10.0,80,0.00,,,0.00,114,Wunderground v.1.15,2013-04-07 13:42:00,
2013-04-07 08:43:00,37.3,31.7,29.95,NW,322,5.0,10.0,80,0.00,,,0.00,118,Wunderground v.1.15,2013-04-07 13:43:00,
2013-04-07 08:45:00,37.3,31.7,29.95,North,360,5.0,10.0,80,0.00,,,0.00,116,Wunderground v.1.15,2013-04-07 13:45:00,
2013-04-07 08:47:00,37.3,31.7,29.95,NW,325,5.0,10.0,80,0.00,,,0.00,116,Wunderground v.1.15,2013-04-07 13:47:00,
2013-04-07 08:51:00,37.5,31.9,29.96,WNW,302,5.0,5.0,80,0.00,,,0.00,104,Wunderground v.1.15,2013-04-07 13:51:00,
2013-04-07 08:52:00,37.5,32.2,29.96,WNW,300,4.0,5.0,81,0.00,,,0.00,102,Wunderground v.1.15,2013-04-07 13:52:00,
2013-04-07 08:56:00,37.5,31.9,29.96,NW,311,3.0,8.0,80,0.00,,,0.00,91,Wunderground v.1.15,2013-04-07 13:56:00,
2013-04-07 08:57:00,37.5,32.2,29.96,NW,317,3.0,8.0,81,0.00,,,0.00,91,Wunderground v.1.15,2013-04-07 13:57:00,
2013-04-07 09:00:00,37.5,32.2,29.96,NW,315,2.0,2.0,81,0.00,,,0.00,90,Wunderground v.1.15,2013-04-07 14:00:00,
2013-04-07 09:02:00,37.6,32.3,29.96,NW,315,2.0,2.0,81,0.00,,,0.00,91,Wunderground v.1.15,2013-04-07 14:02:00,
2013-04-07 09:03:00,37.7,32.4,29.96,NW,315,1.0,2.0,81,0.00,,,0.00,95,Wunderground v.1.15,2013-04-07 14:03:00,
2013-04-07 09:05:00,37.7,32.4,29.96,NW,315,1.0,2.0,81,0.00,,,0.00,95,Wunderground v.1.15,2013-04-07 14:05:00,
2013-04-07 09:06:00,37.8,32.5,29.96,NW,318,1.0,2.0,81,0.00,,,0.00,93,Wunderground v.1.15,2013-04-07 14:06:00,
2013-04-07 09:09:00,37.7,32.4,29.96,WSW,257,1.0,3.0,81,0.00,,,0.00,93,Wunderground v.1.15,2013-04-07 14:09:00,
2013-04-07 09:10:00,37.7,32.4,29.96,West,274,1.0,5.0,81,0.00,,,0.00,97,Wunderground v.1.15,2013-04-07 14:10:00,
2013-04-07 09:11:00,37.7,32.4,29.96,WNW,299,2.0,5.0,81,0.00,,,0.00,97,Wunderground v.1.15,2013-04-07 14:11:00,
2013-04-07 09:12:00,37.7,32.1,29.96,WSW,239,2.0,5.0,80,0.00,,,0.00,100,Wunderground v.1.15,2013-04-07 14:12:00,
2013-04-07 09:15:00,37.7,32.1,29.96,WNW,285,3.0,5.0,80,0.00,,,0.00,111,Wunderground v.1.15,2013-04-07 14:15:00,
2013-04-07 09:17:00,37.5,31.9,29.96,NW,325,3.0,6.0,80,0.00,,,0.00,105,Wunderground v.1.15,2013-04-07 14:17:00,
2013-04-07 09:19:00,37.5,31.9,29.96,NW,324,4.0,6.0,80,0.00,,,0.00,102,Wunderground v.1.15,2013-04-07 14:19:00,
2013-04-07 09:22:00,37.5,31.9,29.96,NW,324,3.0,3.0,80,0.00,,,0.00,104,Wunderground v.1.15,2013-04-07 14:22:00,
2013-04-07 09:25:00,37.7,32.1,29.97,NW,324,2.0,3.0,80,0.00,,,0.00,109,Wunderground v.1.15,2013-04-07 14:25:00,
2013-04-07 09:26:00,37.8,32.5,29.97,NW,324,2.0,3.0,81,0.00,,,0.00,111,Wunderground v.1.15,2013-04-07 14:26:00,
2013-04-07 09:29:00,37.9,32.3,29.97,NW,324,1.0,3.0,80,0.00,,,0.00,114,Wunderground v.1.15,2013-04-07 14:29:00,
2013-04-07 09:33:00,37.9,32.3,29.97,NW,324,1.0,3.0,80,0.00,,,0.00,121,Wunderground v.1.15,2013-04-07 14:33:00,
2013-04-07 09:35:00,37.9,32.3,29.97,NW,324,1.0,3.0,80,0.00,,,0.00,121,Wunderground v.1.15,2013-04-07 14:35:00,
2013-04-07 09:39:00,37.9,32.3,29.97,NW,325,2.0,3.0,80,0.00,,,0.00,128,Wunderground v.1.15,2013-04-07 14:39:00,
2013-04-07 09:40:00,37.9,32.3,29.97,NW,325,2.0,2.0,80,0.00,,,0.00,130,Wunderground v.1.15,2013-04-07 14:40:00,
2013-04-07 09:42:00,38.0,32.4,29.97,NW,325,1.0,3.0,80,0.00,,,0.00,130,Wunderground v.1.15,2013-04-07 14:42:00,
2013-04-07 09:45:00,38.1,32.5,29.97,NW,325,1.0,3.0,80,0.00,,,0.00,134,Wunderground v.1.15,2013-04-07 14:45:00,
2013-04-07 09:46:00,38.1,32.5,29.97,West,281,1.0,7.0,80,0.00,,,0.00,134,Wunderground v.1.15,2013-04-07 14:46:00,
2013-04-07 09:49:00,38.0,32.1,29.97,NNW,342,2.0,7.0,79,0.00,,,0.00,137,Wunderground v.1.15,2013-04-07 14:49:00,
2013-04-07 09:51:00,38.0,32.4,29.98,West,271,3.0,3.0,80,0.00,,,0.00,135,Wunderground v.1.15,2013-04-07 14:51:00,
2013-04-07 09:57:00,38.2,32.6,29.98,SW,232,2.0,3.0,80,0.00,,,0.00,125,Wunderground v.1.15,2013-04-07 14:57:00,
2013-04-07 09:58:00,38.2,32.6,29.98,SW,232,2.0,3.0,80,0.00,,,0.00,125,Wunderground v.1.15,2013-04-07 14:58:00,
2013-04-07 10:00:00,38.1,32.5,29.98,SSW,213,1.0,5.0,80,0.00,,,0.00,123,Wunderground v.1.15,2013-04-07 15:00:00,
2013-04-07 10:03:00,38.0,32.7,29.98,SW,232,2.0,5.0,81,0.00,,,0.00,123,Wunderground v.1.15,2013-04-07 15:03:00,
2013-04-07 10:05:00,37.9,32.6,29.98,SW,231,2.0,5.0,81,0.00,,,0.00,127,Wunderground v.1.15,2013-04-07 15:05:00,
2013-04-07 10:08:00,37.9,32.6,29.98,WSW,242,3.0,8.0,81,0.00,,,0.00,130,Wunderground v.1.15,2013-04-07 15:08:00,
2013-04-07 10:10:00,37.9,32.6,29.98,WSW,238,3.0,3.0,81,0.00,,,0.00,134,Wunderground v.1.15,2013-04-07 15:10:00,
2013-04-07 10:11:00,38.0,33.0,29.99,West,263,3.0,3.0,82,0.00,,,0.00,134,Wunderground v.1.15,2013-04-07 15:11:00,
2013-04-07 10:13:00,38.0,32.7,29.99,WNW,293,3.0,4.0,81,0.00,,,0.00,137,Wunderground v.1.15,2013-04-07 15:13:00,
2013-04-07 10:16:00,38.1,32.8,29.99,WNW,293,2.0,4.0,81,0.00,,,0.00,134,Wunderground v.1.15,2013-04-07 15:16:00,
2013-04-07 10:17:00,38.1,32.5,29.99,WNW,294,2.0,4.0,80,0.00,,,0.00,134,Wunderground v.1.15,2013-04-07 15:17:00,
2013-04-07 10:20:00,38.2,32.6,29.99,West,265,2.0,2.0,80,0.00,,,0.00,128,Wunderground v.1.15,2013-04-07 15:20:00,
2013-04-07 10:21:00,38.3,32.7,29.99,West,265,1.0,2.0,80,0.00,,,0.00,125,Wunderground v.1.15,2013-04-07 15:21:00,
2013-04-07 10:22:00,38.3,32.7,29.99,South,178,1.0,2.0,80,0.00,,,0.00,123,Wunderground v.1.15,2013-04-07 15:22:00,
2013-04-07 10:23:00,38.2,32.6,29.99,SW,227,1.0,4.0,80,0.00,,,0.00,121,Wunderground v.1.15,2013-04-07 15:23:00,
2013-04-07 10:25:00,38.2,32.6,30.00,SW,231,2.0,4.0,80,0.00,,,0.00,121,Wunderground v.1.15,2013-04-07 15:25:00,
2013-04-07 10:28:00,38.2,32.6,30.00,SW,226,2.0,4.0,80,0.00,,,0.00,123,Wunderground v.1.15,2013-04-07 15:28:00,
2013-04-07 10:30:00,38.1,32.5,30.00,SW,235,2.0,8.0,80,0.00,,,0.00,127,Wunderground v.1.15,2013-04-07 15:30:00,
2013-04-07 10:33:00,38.1,32.5,30.00,SW,215,3.0,8.0,80,0.00,,,0.00,139,Wunderground v.1.15,2013-04-07 15:33:00,
2013-04-07 10:34:00,38.1,32.5,30.00,SW,225,3.0,8.0,80,0.00,,,0.00,141,Wunderground v.1.15,2013-04-07 15:34:00,
2013-04-07 10:35:00,38.0,32.4,30.00,SW,229,3.0,8.0,80,0.00,,,0.00,144,Wunderground v.1.15,2013-04-07 15:35:00,
2013-04-07 10:40:00,38.1,32.5,30.00,West,260,4.0,4.0,80,0.00,,,0.00,165,Wunderground v.1.15,2013-04-07 15:40:00,
2013-04-07 10:42:00,38.2,32.6,30.00,WSW,255,4.0,5.0,80,0.00,,,0.00,165,Wunderground v.1.15,2013-04-07 15:42:00,
2013-04-07 10:45:00,38.3,32.7,30.01,SW,236,3.0,5.0,80,0.00,,,0.00,160,Wunderground v.1.15,2013-04-07 15:45:00,
2013-04-07 10:46:00,38.2,32.6,30.01,SW,236,3.0,5.0,80,0.00,,,0.00,160,Wunderground v.1.15,2013-04-07 15:46:00,
2013-04-07 10:50:00,38.2,32.6,30.01,SW,234,3.0,4.0,80,0.00,,,0.00,160,Wunderground v.1.15,2013-04-07 15:50:00,
2013-04-07 10:51:00,38.2,32.6,30.01,SW,219,3.0,7.0,80,0.00,,,0.00,160,Wunderground v.1.15,2013-04-07 15:51:00,
2013-04-07 10:55:00,38.3,32.7,30.01,WSW,242,4.0,7.0,80,0.00,,,0.00,155,Wunderground v.1.15,2013-04-07 15:55:00,
2013-04-07 10:56:00,38.4,33.1,30.01,WSW,242,4.0,7.0,81,0.00,,,0.00,155,Wunderground v.1.15,2013-04-07 15:56:00,
2013-04-07 10:57:00,38.4,33.1,30.01,WSW,242,4.0,7.0,81,0.00,,,0.00,162,Wunderground v.1.15,2013-04-07 15:57:00,
2013-04-07 10:58:00,38.5,32.9,30.01,WSW,242,3.0,7.0,80,0.00,,,0.00,167,Wunderground v.1.15,2013-04-07 15:58:00,
2013-04-07 11:02:00,38.6,33.0,30.01,WSW,242,2.0,3.0,80,0.00,,,0.00,188,Wunderground v.1.15,2013-04-07 16:02:00,
2013-04-07 11:03:00,38.6,33.0,30.01,WSW,245,1.0,3.0,80,0.00,,,0.00,190,Wunderground v.1.15,2013-04-07 16:03:00,
2013-04-07 11:04:00,38.7,32.7,30.01,WSW,245,1.0,3.0,79,0.00,,,0.00,190,Wunderground v.1.15,2013-04-07 16:04:00,
2013-04-07 11:09:00,38.6,32.6,30.01,WSW,239,2.0,9.0,79,0.00,,,0.00,195,Wunderground v.1.15,2013-04-07 16:09:00,
2013-04-07 11:13:00,38.6,33.0,30.02,SW,232,4.0,6.0,80,0.00,,,0.00,207,Wunderground v.1.15,2013-04-07 16:13:00,
2013-04-07 11:14:00,38.6,33.0,30.02,SW,234,4.0,6.0,80,0.00,,,0.00,216,Wunderground v.1.15,2013-04-07 16:14:00,
2013-04-07 11:15:00,38.6,33.0,30.02,SW,229,4.0,6.0,80,0.00,,,0.00,227,Wunderground v.1.15,2013-04-07 16:15:00,
2013-04-07 11:16:00,38.6,32.6,30.02,WSW,237,4.0,6.0,79,0.00,,,0.00,236,Wunderground v.1.15,2013-04-07 16:16:00,
2013-04-07 11:20:00,39.0,33.0,30.02,WSW,237,4.0,4.0,79,0.00,,,0.00,241,Wunderground v.1.15,2013-04-07 16:20:00,
2013-04-07 11:22:00,39.2,33.2,30.02,WSW,237,2.0,4.0,79,0.00,,,0.00,243,Wunderground v.1.15,2013-04-07 16:22:00,
2013-04-07 11:25:00,39.2,32.9,30.02,WSW,237,1.0,4.0,78,0.00,,,0.00,239,Wunderground v.1.15,2013-04-07 16:25:00,
2013-04-07 11:26:00,39.4,33.1,30.02,WSW,237,1.0,4.0,78,0.00,,,0.00,237,Wunderground v.1.15,2013-04-07 16:26:00,
2013-04-07 11:27:00,39.4,33.4,30.02,WSW,237,0.0,4.0,79,0.00,,,0.00,237,Wunderground v.1.15,2013-04-07 16:27:00,
2013-04-07 11:31:00,39.7,33.4,30.02,WSW,237,0.0,1.0,78,0.00,,,0.00,258,Wunderground v.1.15,2013-04-07 16:31:00,
2013-04-07 11:32:00,39.6,33.3,30.02,WSW,237,1.0,1.0,78,0.00,,,0.00,267,Wunderground v.1.15,2013-04-07 16:32:00,
2013-04-07 11:35:00,39.5,32.9,30.02,NNW,330,1.0,1.0,77,0.00,,,0.00,302,Wunderground v.1.15,2013-04-07 16:35:00,
2013-04-07 11:36:00,39.5,32.9,30.02,NNW,327,1.0,4.0,77,0.00,,,0.00,320,Wunderground v.1.15,2013-04-07 16:36:00,
2013-04-07 11:38:00,39.5,32.9,30.02,NNW,327,1.0,4.0,77,0.00,,,0.00,338,Wunderground v.1.15,2013-04-07 16:38:00,
2013-04-07 11:40:00,39.6,33.0,30.02,WSW,246,1.0,2.0,77,0.00,,,0.00,343,Wunderground v.1.15,2013-04-07 16:40:00,
2013-04-07 11:43:00,39.9,33.6,30.02,WSW,246,1.0,3.0,78,0.00,,,0.00,336,Wunderground v.1.15,2013-04-07 16:43:00,
2013-04-07 11:46:00,40.3,33.7,30.02,WSW,246,1.0,4.0,77,0.00,,,0.00,369,Wunderground v.1.15,2013-04-07 16:46:00,
2013-04-07 11:48:00,40.0,33.0,30.02,WSW,238,2.0,5.0,76,0.00,,,0.00,432,Wunderground v.1.15,2013-04-07 16:48:00,
2013-04-07 11:50:00,39.8,33.2,30.02,SW,233,2.0,4.0,77,0.00,,,0.00,420,Wunderground v.1.15,2013-04-07 16:50:00,
2013-04-07 11:52:00,39.6,33.0,30.02,SW,223,3.0,4.0,77,0.00,,,0.00,392,Wunderground v.1.15,2013-04-07 16:52:00,
2013-04-07 11:54:00,39.6,33.0,30.02,SW,230,3.0,6.0,77,0.00,,,0.00,369,Wunderground v.1.15,2013-04-07 16:54:00,
2013-04-07 11:55:00,39.6,33.3,30.03,WSW,238,4.0,6.0,78,0.00,,,0.00,353,Wunderground v.1.15,2013-04-07 16:55:00,
2013-04-07 11:58:00,39.4,32.8,30.02,SW,232,4.0,6.0,77,0.00,,,0.00,357,Wunderground v.1.15,2013-04-07 16:58:00,
2013-04-07 12:00:00,39.7,33.4,30.03,SW,230,4.0,4.0,78,0.00,,,0.00,355,Wunderground v.1.15,2013-04-07 17:00:00,
2013-04-07 12:04:00,40.1,34.1,30.02,SW,230,3.0,4.0,79,0.00,,,0.00,385,Wunderground v.1.15,2013-04-07 17:04:00,
2013-04-07 12:05:00,40.2,33.9,30.03,SW,230,3.0,4.0,78,0.00,,,0.00,367,Wunderground v.1.15,2013-04-07 17:05:00,
2013-04-07 12:09:00,39.8,33.2,30.03,SW,230,2.0,4.0,77,0.00,,,0.00,346,Wunderground v.1.15,2013-04-07 17:09:00,
2013-04-07 12:10:00,39.9,33.3,30.03,SW,230,2.0,2.0,77,0.00,,,0.00,345,Wunderground v.1.15,2013-04-07 17:10:00,
2013-04-07 12:13:00,39.9,33.3,30.03,SW,236,3.0,3.0,77,0.00,,,0.00,360,Wunderground v.1.15,2013-04-07 17:13:00,
2013-04-07 12:15:00,39.9,33.3,30.03,SW,236,3.0,4.0,77,0.00,,,0.00,359,Wunderground v.1.15,2013-04-07 17:15:00,
2013-04-07 12:16:00,40.0,33.4,30.03,SW,235,3.0,5.0,77,0.00,,,0.00,376,Wunderground v.1.15,2013-04-07 17:16:00,
2013-04-07 12:19:00,40.2,33.9,30.03,West,259,3.0,5.0,78,0.00,,,0.00,345,Wunderground v.1.15,2013-04-07 17:19:00,
2013-04-07 12:21:00,40.2,33.6,30.03,WSW,258,3.0,3.0,77,0.00,,,0.00,359,Wunderground v.1.15,2013-04-07 17:21:00,
2013-04-07 12:25:00,40.7,33.4,30.03,SW,232,2.0,8.0,75,0.00,,,0.00,380,Wunderground v.1.15,2013-04-07 17:25:00,
2013-04-07 12:26:00,40.6,33.3,30.03,SW,235,3.0,8.0,75,0.00,,,0.00,380,Wunderground v.1.15,2013-04-07 17:26:00,
2013-04-07 12:28:00,40.5,33.5,30.03,WSW,238,3.0,8.0,76,0.00,,,0.00,392,Wunderground v.1.15,2013-04-07 17:28:00,
2013-04-07 12:32:00,40.8,33.8,30.03,WSW,238,3.0,3.0,76,0.00,,,0.00,369,Wunderground v.1.15,2013-04-07 17:32:00,
2013-04-07 12:33:00,40.8,33.5,30.03,WSW,238,3.0,3.0,75,0.00,,,0.00,360,Wunderground v.1.15,2013-04-07 17:33:00,
2013-04-07 12:36:00,40.8,33.5,30.03,WNW,290,2.0,4.0,75,0.00,,,0.00,318,Wunderground v.1.15,2013-04-07 17:36:00,
2013-04-07 12:38:00,41.0,34.0,30.03,WNW,290,2.0,4.0,76,0.00,,,0.00,316,Wunderground v.1.15,2013-04-07 17:38:00,
2013-04-07 12:39:00,41.0,34.0,30.03,WNW,290,2.0,4.0,76,0.00,,,0.00,323,Wunderground v.1.15,2013-04-07 17:39:00,
2013-04-07 12:43:00,41.2,33.9,30.03,SW,236,2.0,6.0,75,0.00,,,0.00,346,Wunderground v.1.15,2013-04-07 17:43:00,
2013-04-07 12:47:00,41.3,34.0,30.03,West,279,2.0,6.0,75,0.00,,,0.00,353,Wunderground v.1.15,2013-04-07 17:47:00,
2013-04-07 12:49:00,41.6,34.3,30.03,West,279,2.0,6.0,75,0.00,,,0.00,357,Wunderground v.1.15,2013-04-07 17:49:00,
2013-04-07 12:53:00,41.7,34.0,30.03,West,261,2.0,4.0,74,0.00,,,0.00,329,Wunderground v.1.15,2013-04-07 17:53:00,
2013-04-07 12:54:00,41.7,34.0,30.03,West,261,2.0,4.0,74,0.00,,,0.00,330,Wunderground v.1.15,2013-04-07 17:54:00,
2013-04-07 12:55:00,41.7,34.0,30.03,WSW,254,2.0,4.0,74,0.00,,,0.00,341,Wunderground v.1.15,2013-04-07 17:55:00,
2013-04-07 13:00:00,41.7,33.7,30.02,West,265,2.0,2.0,73,0.00,,,0.00,394,Wunderground v.1.15,2013-04-07 18:00:00,
2013-04-07 13:01:00,41.8,34.1,30.02,West,265,2.0,2.0,74,0.00,,,0.00,404,Wunderground v.1.15,2013-04-07 18:01:00,
2013-04-07 13:02:00,41.8,33.8,30.02,West,265,2.0,3.0,73,0.00,,,0.00,427,Wunderground v.1.15,2013-04-07 18:02:00,
2013-04-07 13:07:00,41.3,33.3,30.02,WSW,244,2.0,4.0,73,0.00,,,0.00,454,Wunderground v.1.15,2013-04-07 18:07:00,
2013-04-07 13:08:00,41.3,33.6,30.02,SW,236,2.0,4.0,74,0.00,,,0.00,452,Wunderground v.1.15,2013-04-07 18:08:00,
2013-04-07 13:09:00,41.4,34.1,30.02,SW,236,2.0,4.0,75,0.00,,,0.00,450,Wunderground v.1.15,2013-04-07 18:09:00,
2013-04-07 13:11:00,41.9,34.2,30.02,SW,227,2.0,6.0,74,0.00,,,0.00,464,Wunderground v.1.15,2013-04-07 18:11:00,
2013-04-07 13:13:00,42.3,34.6,30.02,NW,325,3.0,6.0,74,0.00,,,0.00,489,Wunderground v.1.15,2013-04-07 18:13:00,
2013-04-07 13:15:00,42.5,34.1,30.02,West,259,3.0,8.0,72,0.00,,,0.00,512,Wunderground v.1.15,2013-04-07 18:15:00,
2013-04-07 13:19:00,42.4,34.4,30.01,West,271,3.0,8.0,73,0.00,,,0.00,1009,Wunderground v.1.15,2013-04-07 18:19:00,
2013-04-07 13:22:00,42.9,34.8,30.00,WSW,244,3.0,5.0,73,0.00,,,0.00,1009,Wunderground v.1.15,2013-04-07 18:22:00,
2013-04-07 13:24:00,42.5,33.4,30.00,SW,223,3.0,5.0,70,0.00,,,0.00,1009,Wunderground v.1.15,2013-04-07 18:24:00,
2013-04-07 13:25:00,42.9,34.5,30.00,SW,217,2.0,5.0,72,0.00,,,0.00,1028,Wunderground v.1.15,2013-04-07 18:25:00,
2013-04-07 13:27:00,42.9,34.1,30.00,SW,234,3.0,5.0,71,0.00,,,0.00,1018,Wunderground v.1.15,2013-04-07 18:27:00,
2013-04-07 13:32:00,43.3,34.5,30.00,SW,232,3.0,7.0,71,0.00,,,0.00,926,Wunderground v.1.15,2013-04-07 18:32:00,
2013-04-07 13:33:00,43.6,35.5,30.00,SW,223,3.0,7.0,73,0.00,,,0.00,912,Wunderground v.1.15,2013-04-07 18:33:00,
2013-04-07 13:34:00,43.7,35.6,30.00,SW,223,3.0,7.0,73,0.00,,,0.00,912,Wunderground v.1.15,2013-04-07 18:34:00,
2013-04-07 13:37:00,44.5,35.7,30.01,West,265,4.0,7.0,71,0.00,,,0.00,865,Wunderground v.1.15,2013-04-07 18:37:00,
2013-04-07 13:40:00,45.0,35.4,30.01,West,263,3.0,3.0,69,0.00,,,0.00,962,Wunderground v.1.15,2013-04-07 18:40:00,
2013-04-07 13:42:00,44.5,34.6,30.01,South,186,3.0,3.0,68,0.00,,,0.00,489,Wunderground v.1.15,2013-04-07 18:42:00,
2013-04-07 13:43:00,43.9,34.4,30.01,South,175,3.0,3.0,69,0.00,,,0.00,489,Wunderground v.1.15,2013-04-07 18:43:00,
2013-04-07 13:46:00,43.6,34.5,30.02,South,182,3.0,4.0,70,0.00,,,0.00,812,Wunderground v.1.15,2013-04-07 18:46:00,
2013-04-07 13:47:00,43.6,34.8,30.02,South,182,3.0,4.0,71,0.00,,,0.00,485,Wunderground v.1.15,2013-04-07 18:47:00,
2013-04-07 13:48:00,43.7,34.9,30.01,South,182,2.0,4.0,71,0.00,,,0.00,485,Wunderground v.1.15,2013-04-07 18:48:00,
2013-04-07 13:51:00,44.2,35.0,30.01,West,265,2.0,3.0,70,0.00,,,0.00,891,Wunderground v.1.15,2013-04-07 18:51:00,
2013-04-07 13:53:00,44.5,35.0,30.01,SW,229,2.0,4.0,69,0.00,,,0.00,865,Wunderground v.1.15,2013-04-07 18:53:00,
2013-04-07 13:54:00,44.4,34.9,30.01,SW,229,2.0,4.0,69,0.00,,,0.00,877,Wunderground v.1.15,2013-04-07 18:54:00,
2013-04-07 13:55:00,44.3,34.8,30.01,SW,229,2.0,4.0,69,0.00,,,0.00,884,Wunderground v.1.15,2013-04-07 18:55:00,
2013-04-07 13:58:00,44.6,34.7,30.00,SSW,211,2.0,6.0,68,0.00,,,0.00,884,Wunderground v.1.15,2013-04-07 18:58:00,
2013-04-07 13:59:00,44.6,35.1,30.00,SSW,208,2.0,6.0,69,0.00,,,0.00,893,Wunderground v.1.15,2013-04-07 18:59:00,
2013-04-07 14:02:00,44.8,35.2,30.00,West,277,2.0,5.0,69,0.00,,,0.00,777,Wunderground v.1.15,2013-04-07 19:02:00,
2013-04-07 14:03:00,44.6,35.1,30.00,WSW,244,3.0,5.0,69,0.00,,,0.00,585,Wunderground v.1.15,2013-04-07 19:03:00,
2013-04-07 14:08:00,44.9,35.7,30.00,SW,217,3.0,5.0,70,0.00,,,0.00,772,Wunderground v.1.15,2013-04-07 19:08:00,
2013-04-07 14:09:00,44.8,34.9,30.00,SW,217,3.0,5.0,68,0.00,,,0.00,772,Wunderground v.1.15,2013-04-07 19:09:00,
2013-04-07 14:10:00,44.7,35.1,30.00,SW,217,3.0,3.0,69,0.00,,,0.00,831,Wunderground v.1.15,2013-04-07 19:10:00,
2013-04-07 14:15:00,45.6,36.0,30.00,SW,217,3.0,6.0,69,0.00,,,0.00,851,Wunderground v.1.15,2013-04-07 19:15:00,
2013-04-07 14:16:00,45.5,35.5,30.00,WSW,240,3.0,6.0,68,0.00,,,0.00,795,Wunderground v.1.15,2013-04-07 19:16:00,
2013-04-07 14:17:00,45.6,35.3,30.00,WSW,240,3.0,6.0,67,0.00,,,0.00,863,Wunderground v.1.15,2013-04-07 19:17:00,
2013-04-07 14:22:00,45.5,35.2,30.00,SW,224,2.0,3.0,67,0.00,,,0.00,817,Wunderground v.1.15,2013-04-07 19:22:00,
2013-04-07 14:24:00,45.4,35.1,30.00,SW,225,2.0,4.0,67,0.00,,,0.00,775,Wunderground v.1.15,2013-04-07 19:24:00,
2013-04-07 14:27:00,45.8,35.8,30.00,SW,235,2.0,4.0,68,0.00,,,0.00,758,Wunderground v.1.15,2013-04-07 19:27:00,
2013-04-07 14:28:00,46.1,36.1,29.99,SW,227,2.0,4.0,68,0.00,,,0.00,761,Wunderground v.1.15,2013-04-07 19:28:00,
2013-04-07 14:30:00,46.5,36.1,29.99,SW,221,2.0,3.0,67,0.00,,,0.00,779,Wunderground v.1.15,2013-04-07 19:30:00,
2013-04-07 14:32:00,46.7,36.3,29.99,SW,232,2.0,3.0,67,0.00,,,0.00,779,Wunderground v.1.15,2013-04-07 19:32:00,
2013-04-07 14:34:00,46.9,36.1,29.99,SW,232,2.0,4.0,66,0.00,,,0.00,789,Wunderground v.1.15,2013-04-07 19:34:00,
2013-04-07 14:36:00,46.6,35.5,29.99,SW,232,2.0,4.0,65,0.00,,,0.00,782,Wunderground v.1.15,2013-04-07 19:36:00,
2013-04-07 14:39:00,46.8,36.0,29.99,SW,232,2.0,4.0,66,0.00,,,0.00,745,Wunderground v.1.15,2013-04-07 19:39:00,
2013-04-07 14:41:00,46.9,35.7,29.99,WSW,240,1.0,3.0,65,0.00,,,0.00,756,Wunderground v.1.15,2013-04-07 19:41:00,
2013-04-07 14:42:00,46.8,35.6,29.99,WSW,240,1.0,3.0,65,0.00,,,0.00,722,Wunderground v.1.15,2013-04-07 19:42:00,
2013-04-07 14:45:00,46.9,35.4,29.99,WSW,239,2.0,4.0,64,0.00,,,0.00,770,Wunderground v.1.15,2013-04-07 19:45:00,
2013-04-07 14:47:00,46.7,35.2,29.99,WSW,238,2.0,4.0,64,0.00,,,0.00,780,Wunderground v.1.15,2013-04-07 19:47:00,
2013-04-07 14:50:00,47.7,36.5,29.99,WSW,237,2.0,2.0,65,0.00,,,0.00,770,Wunderground v.1.15,2013-04-07 19:50:00,
2013-04-07 14:51:00,47.6,35.6,29.99,WSW,237,2.0,2.0,63,0.00,,,0.00,759,Wunderground v.1.15,2013-04-07 19:51:00,
2013-04-07 14:52:00,47.0,35.0,29.99,SSE,150,2.0,2.0,63,0.00,,,0.00,759,Wunderground v.1.15,2013-04-07 19:52:00,
2013-04-07 14:56:00,46.0,35.3,29.99,SE,142,2.0,5.0,66,0.00,,,0.00,740,Wunderground v.1.15,2013-04-07 19:56:00,
2013-04-07 14:57:00,46.4,36.0,29.99,SE,142,2.0,5.0,67,0.00,,,0.00,770,Wunderground v.1.15,2013-04-07 19:57:00,
2013-04-07 14:58:00,46.7,35.9,29.99,WSW,257,2.0,5.0,66,0.00,,,0.00,770,Wunderground v.1.15,2013-04-07 19:58:00,
2013-04-07 15:02:00,46.9,35.7,29.99,WSW,244,2.0,2.0,65,0.00,,,0.00,701,Wunderground v.1.15,2013-04-07 20:02:00,
2013-04-07 15:03:00,46.8,35.6,29.99,WSW,244,2.0,2.0,65,0.00,,,0.00,680,Wunderground v.1.15,2013-04-07 20:03:00,
2013-04-07 15:06:00,46.8,35.3,29.98,NNW,348,2.0,5.0,64,0.00,,,0.00,701,Wunderground v.1.15,2013-04-07 20:06:00,
2013-04-07 15:08:00,47.1,35.9,29.98,ESE,111,1.0,5.0,65,0.00,,,0.00,717,Wunderground v.1.15,2013-04-07 20:08:00,
2013-04-07 15:09:00,47.3,36.1,29.98,ESE,113,1.0,5.0,65,0.00,,,0.00,717,Wunderground v.1.15,2013-04-07 20:09:00,
2013-04-07 15:13:00,46.9,35.7,29.98,NE,44,1.0,4.0,65,0.00,,,0.00,554,Wunderground v.1.15,2013-04-07 20:13:00,
2013-04-07 15:15:00,46.7,35.2,29.98,NE,45,1.0,4.0,64,0.00,,,0.00,499,Wunderground v.1.15,2013-04-07 20:15:00,
2013-04-07 15:16:00,46.8,35.6,29.98,SE,126,1.0,4.0,65,0.00,,,0.00,536,Wunderground v.1.15,2013-04-07 20:16:00,
2013-04-07 15:18:00,46.9,35.7,29.98,NE,36,1.0,4.0,65,0.00,,,0.00,563,Wunderground v.1.15,2013-04-07 20:18:00,
2013-04-07 15:19:00,46.9,35.4,29.98,NE,36,1.0,4.0,64,0.00,,,0.00,563,Wunderground v.1.15,2013-04-07 20:19:00,
2013-04-07 15:22:00,47.6,36.8,29.98,NE,36,1.0,1.0,66,0.00,,,0.00,582,Wunderground v.1.15,2013-04-07 20:22:00,
2013-04-07 15:23:00,48.1,36.1,29.98,ENE,63,1.0,1.0,63,0.00,,,0.00,587,Wunderground v.1.15,2013-04-07 20:23:00,
2013-04-07 15:27:00,47.6,36.0,29.98,ESE,116,1.0,1.0,64,0.00,,,0.00,643,Wunderground v.1.15,2013-04-07 20:27:00,
2013-04-07 15:28:00,47.6,35.6,29.98,ESE,116,1.0,1.0,63,0.00,,,0.00,605,Wunderground v.1.15,2013-04-07 20:28:00,
2013-04-07 15:29:00,47.6,35.6,29.98,ESE,116,1.0,1.0,63,0.00,,,0.00,599,Wunderground v.1.15,2013-04-07 20:29:00,
2013-04-07 15:31:00,48.3,36.7,29.97,ESE,116,0.0,1.0,64,0.00,,,0.00,624,Wunderground v.1.15,2013-04-07 20:31:00,
2013-04-07 15:32:00,48.3,35.9,29.97,ESE,116,0.0,1.0,62,0.00,,,0.00,631,Wunderground v.1.15,2013-04-07 20:32:00,
2013-04-07 15:34:00,48.2,36.2,29.97,ESE,116,0.0,1.0,63,0.00,,,0.00,628,Wunderground v.1.15,2013-04-07 20:34:00,
2013-04-07 15:36:00,48.4,36.4,29.97,ENE,70,0.0,1.0,63,0.00,,,0.00,587,Wunderground v.1.15,2013-04-07 20:36:00,
2013-04-07 15:37:00,48.2,35.8,29.97,ENE,70,0.0,1.0,62,0.00,,,0.00,571,Wunderground v.1.15,2013-04-07 20:37:00,
2013-04-07 15:40:00,48.9,36.4,29.97,WSW,250,0.0,2.0,62,0.00,,,0.00,566,Wunderground v.1.15,2013-04-07 20:40:00,
2013-04-07 15:44:00,48.4,36.4,29.97,WSW,246,1.0,3.0,63,0.00,,,0.00,591,Wunderground v.1.15,2013-04-07 20:44:00,
2013-04-07 15:47:00,48.7,36.7,29.97,WSW,246,1.0,4.0,63,0.00,,,0.00,619,Wunderground v.1.15,2013-04-07 20:47:00,
2013-04-07 15:49:00,49.0,36.5,29.96,WSW,246,2.0,4.0,62,0.00,,,0.00,548,Wunderground v.1.15,2013-04-07 20:49:00,
2013-04-07 15:51:00,49.4,36.9,29.96,WSW,246,2.0,2.0,62,0.00,,,0.00,582,Wunderground v.1.15,2013-04-07 20:51:00,
2013-04-07 15:54:00,49.6,36.3,29.96,WSW,246,1.0,2.0,60,0.00,,,0.00,476,Wunderground v.1.15,2013-04-07 20:54:00,
2013-04-07 15:57:00,49.1,35.8,29.97,WSW,246,1.0,2.0,60,0.00,,,0.00,489,Wunderground v.1.15,2013-04-07 20:57:00,
2013-04-07 15:58:00,49.1,36.2,29.97,WSW,246,1.0,2.0,61,0.00,,,0.00,417,Wunderground v.1.15,2013-04-07 20:58:00,
2013-04-07 15:59:00,49.3,36.4,29.96,WNW,299,0.0,2.0,61,0.00,,,0.00,489,Wunderground v.1.15,2013-04-07 20:59:00,
2013-04-07 16:02:00,48.9,35.6,29.96,North,355,1.0,3.0,60,0.00,,,0.00,526,Wunderground v.1.15,2013-04-07 21:02:00,
2013-04-07 16:03:00,48.8,35.9,29.96,North,355,1.0,3.0,61,0.00,,,0.00,531,Wunderground v.1.15,2013-04-07 21:03:00,
2013-04-07 16:08:00,50.0,36.7,29.96,WSW,254,1.0,3.0,60,0.00,,,0.00,606,Wunderground v.1.15,2013-04-07 21:08:00,
2013-04-07 16:09:00,50.0,36.7,29.96,WSW,254,1.0,3.0,60,0.00,,,0.00,592,Wunderground v.1.15,2013-04-07 21:09:00,
2013-04-07 16:11:00,50.1,36.3,29.96,WSW,254,1.0,3.0,59,0.00,,,0.00,517,Wunderground v.1.15,2013-04-07 21:11:00,
2013-04-07 16:14:00,49.9,36.1,29.96,WSW,254,1.0,3.0,59,0.00,,,0.00,422,Wunderground v.1.15,2013-04-07 21:14:00,
2013-04-07 16:15:00,49.8,36.0,29.96,WSW,254,1.0,3.0,59,0.00,,,0.00,408,Wunderground v.1.15,2013-04-07 21:15:00,
2013-04-07 16:16:00,49.8,36.5,29.96,WSW,254,1.0,3.0,60,0.00,,,0.00,418,Wunderground v.1.15,2013-04-07 21:16:00,
2013-04-07 16:21:00,50.9,36.6,29.96,WSW,254,1.0,1.0,58,0.00,,,0.00,306,Wunderground v.1.15,2013-04-07 21:21:00,
2013-04-07 16:22:00,50.8,37.0,29.96,WSW,254,0.0,1.0,59,0.00,,,0.00,306,Wunderground v.1.15,2013-04-07 21:22:00,
2013-04-07 16:27:00,49.7,36.4,29.96,SSW,200,1.0,1.0,60,0.00,,,0.00,550,Wunderground v.1.15,2013-04-07 21:27:00,
2013-04-07 16:28:00,49.9,37.0,29.96,SSW,200,1.0,1.0,61,0.00,,,0.00,536,Wunderground v.1.15,2013-04-07 21:28:00,
2013-04-07 16:31:00,51.0,37.2,29.96,SSW,200,1.0,1.0,59,0.00,,,0.00,501,Wunderground v.1.15,2013-04-07 21:31:00,
2013-04-07 16:33:00,51.9,38.0,29.96,NNW,344,0.0,2.0,59,0.00,,,0.00,487,Wunderground v.1.15,2013-04-07 21:33:00,
2013-04-07 16:37:00,51.2,36.5,29.96,North,5,1.0,2.0,57,0.00,,,0.00,432,Wunderground v.1.15,2013-04-07 21:37:00,
2013-04-07 16:38:00,51.2,36.9,29.96,SE,143,1.0,2.0,58,0.00,,,0.00,413,Wunderground v.1.15,2013-04-07 21:38:00,
2013-04-07 16:40:00,51.0,36.7,29.96,ENE,73,1.0,4.0,58,0.00,,,0.00,403,Wunderground v.1.15,2013-04-07 21:40:00,
2013-04-07 16:43:00,51.2,36.9,29.96,SSW,203,2.0,4.0,58,0.00,,,0.00,455,Wunderground v.1.15,2013-04-07 21:43:00,
2013-04-07 16:44:00,51.1,36.8,29.96,SSW,203,2.0,4.0,58,0.00,,,0.00,434,Wunderground v.1.15,2013-04-07 21:44:00,
2013-04-07 16:45:00,51.0,36.7,29.96,SW,223,2.0,4.0,58,0.00,,,0.00,434,Wunderground v.1.15,2013-04-07 21:45:00,
2013-04-07 16:46:00,50.8,36.5,29.96,SW,218,2.0,4.0,58,0.00,,,0.00,257,Wunderground v.1.15,2013-04-07 21:46:00,
2013-04-07 16:49:00,50.3,36.5,29.96,SW,214,2.0,4.0,59,0.00,,,0.00,227,Wunderground v.1.15,2013-04-07 21:49:00,
2013-04-07 16:51:00,50.1,36.3,29.96,ESE,119,3.0,7.0,59,0.00,,,0.00,302,Wunderground v.1.15,2013-04-07 21:51:00,
2013-04-07 16:53:00,50.1,36.3,29.96,ESE,112,3.0,7.0,59,0.00,,,0.00,302,Wunderground v.1.15,2013-04-07 21:53:00,
2013-04-07 16:54:00,50.2,36.8,29.96,ESE,112,3.0,7.0,60,0.00,,,0.00,452,Wunderground v.1.15,2013-04-07 21:54:00,
2013-04-07 16:55:00,50.7,37.3,29.96,ESE,112,3.0,7.0,60,0.00,,,0.00,499,Wunderground v.1.15,2013-04-07 21:55:00,
2013-04-07 17:00:00,51.2,36.9,29.96,ENE,65,2.0,2.0,58,0.00,,,0.00,459,Wunderground v.1.15,2013-04-07 22:00:00,
2013-04-07 17:01:00,51.2,36.9,29.96,ENE,71,1.0,3.0,58,0.00,,,0.00,450,Wunderground v.1.15,2013-04-07 22:01:00,
2013-04-07 17:02:00,50.9,36.2,29.96,ENE,71,1.0,3.0,57,0.00,,,0.00,445,Wunderground v.1.15,2013-04-07 22:02:00,
2013-04-07 17:07:00,52.3,37.5,29.95,ENE,71,1.0,3.0,57,0.00,,,0.00,410,Wunderground v.1.15,2013-04-07 22:07:00,
2013-04-07 17:09:00,52.4,37.6,29.95,ENE,78,1.0,5.0,57,0.00,,,0.00,396,Wunderground v.1.15,2013-04-07 22:09:00,
2013-04-07 17:13:00,51.8,37.0,29.95,NE,44,2.0,10.0,57,0.00,,,0.00,371,Wunderground v.1.15,2013-04-07 22:13:00,
2013-04-07 17:15:00,51.5,36.8,29.95,East,82,3.0,10.0,57,0.00,,,0.00,371,Wunderground v.1.15,2013-04-07 22:15:00,
2013-04-07 17:17:00,51.4,37.1,29.96,East,86,3.0,11.0,58,0.00,,,0.00,366,Wunderground v.1.15,2013-04-07 22:17:00,
2013-04-07 17:18:00,51.5,37.2,29.95,East,82,4.0,11.0,58,0.00,,,0.00,364,Wunderground v.1.15,2013-04-07 22:18:00,
2013-04-07 17:21:00,51.6,36.9,29.95,SSE,167,5.0,5.0,57,0.00,,,0.00,355,Wunderground v.1.15,2013-04-07 22:21:00,
2013-04-07 17:24:00,51.3,37.0,29.96,East,89,4.0,5.0,58,0.00,,,0.00,343,Wunderground v.1.15,2013-04-07 22:24:00,
2013-04-07 17:26:00,51.3,37.0,29.95,ESE,113,4.0,5.0,58,0.00,,,0.00,338,Wunderground v.1.15,2013-04-07 22:26:00,
2013-04-07 17:29:00,51.4,37.1,29.95,ESE,115,4.0,7.0,58,0.00,,,0.00,327,Wunderground v.1.15,2013-04-07 22:29:00,
2013-04-07 17:30:00,51.5,37.2,29.95,East,98,4.0,7.0,58,0.00,,,0.00,323,Wunderground v.1.15,2013-04-07 22:30:00,
2013-04-07 17:35:00,51.8,37.0,29.95,ESE,112,4.0,7.0,57,0.00,,,0.00,297,Wunderground v.1.15,2013-04-07 22:35:00,
2013-04-07 17:36:00,51.7,36.9,29.95,ESE,106,4.0,7.0,57,0.00,,,0.00,304,Wunderground v.1.15,2013-04-07 22:36:00,
2013-04-07 17:41:00,52.0,36.8,29.95,SE,142,4.0,7.0,56,0.00,,,0.00,288,Wunderground v.1.15,2013-04-07 22:41:00,
2013-04-07 17:43:00,51.7,36.9,29.95,SE,139,3.0,7.0,57,0.00,,,0.00,281,Wunderground v.1.15,2013-04-07 22:43:00,
2013-04-07 17:44:00,51.7,36.5,29.95,SE,139,3.0,7.0,56,0.00,,,0.00,274,Wunderground v.1.15,2013-04-07 22:44:00,
2013-04-07 17:47:00,52.1,37.3,29.95,ESE,120,2.0,7.0,57,0.00,,,0.00,248,Wunderground v.1.15,2013-04-07 22:47:00,
2013-04-07 17:50:00,51.9,36.7,29.95,ESE,107,2.0,4.0,56,0.00,,,0.00,237,Wunderground v.1.15,2013-04-07 22:50:00,
2013-04-07 17:51:00,51.8,36.6,29.95,ESE,111,2.0,4.0,56,0.00,,,0.00,230,Wunderground v.1.15,2013-04-07 22:51:00,
2013-04-07 17:55:00,51.3,36.6,29.95,SSE,149,3.0,7.0,57,0.00,,,0.00,188,Wunderground v.1.15,2013-04-07 22:55:00,
2013-04-07 17:57:00,51.3,36.6,29.95,SE,138,4.0,7.0,57,0.00,,,0.00,179,Wunderground v.1.15,2013-04-07 22:57:00,
2013-04-07 18:01:00,51.5,36.8,29.95,SE,133,4.0,8.0,57,0.00,,,0.00,188,Wunderground v.1.15,2013-04-07 23:01:00,
2013-04-07 18:02:00,51.5,36.8,29.95,ESE,107,5.0,8.0,57,0.00,,,0.00,183,Wunderground v.1.15,2013-04-07 23:02:00,
2013-04-07 18:04:00,51.5,36.8,29.95,East,95,4.0,8.0,57,0.00,,,0.00,197,Wunderground v.1.15,2013-04-07 23:04:00,
2013-04-07 18:06:00,51.5,36.8,29.95,East,91,4.0,8.0,57,0.00,,,0.00,174,Wunderground v.1.15,2013-04-07 23:06:00,
2013-04-07 18:07:00,51.5,36.8,29.95,East,98,4.0,8.0,57,0.00,,,0.00,181,Wunderground v.1.15,2013-04-07 23:07:00,
2013-04-07 18:11:00,51.7,36.9,29.95,East,84,4.0,4.0,57,0.00,,,0.00,183,Wunderground v.1.15,2013-04-07 23:11:00,
2013-04-07 18:12:00,51.8,37.0,29.95,East,82,3.0,4.0,57,0.00,,,0.00,179,Wunderground v.1.15,2013-04-07 23:12:00,
2013-04-07 18:14:00,51.9,36.7,29.95,ENE,78,3.0,6.0,56,0.00,,,0.00,176,Wunderground v.1.15,2013-04-07 23:14:00,
2013-04-07 18:17:00,52.0,37.2,29.95,East,80,2.0,6.0,57,0.00,,,0.00,158,Wunderground v.1.15,2013-04-07 23:17:00,
2013-04-07 18:20:00,51.9,36.7,29.95,East,99,2.0,2.0,56,0.00,,,0.00,158,Wunderground v.1.15,2013-04-07 23:20:00,
2013-04-07 18:25:00,51.9,37.1,29.95,SE,126,2.0,6.0,57,0.00,,,0.00,139,Wunderground v.1.15,2013-04-07 23:25:00,
2013-04-07 18:27:00,51.8,37.0,29.95,ESE,109,3.0,6.0,57,0.00,,,0.00,130,Wunderground v.1.15,2013-04-07 23:27:00,
2013-04-07 18:28:00,51.7,36.9,29.95,ESE,113,3.0,6.0,57,0.00,,,0.00,127,Wunderground v.1.15,2013-04-07 23:28:00,
2013-04-07 18:33:00,51.6,36.9,29.95,SE,126,3.0,5.0,57,0.00,,,0.00,113,Wunderground v.1.15,2013-04-07 23:33:00,
2013-04-07 18:35:00,51.7,37.4,29.95,ESE,108,3.0,5.0,58,0.00,,,0.00,105,Wunderground v.1.15,2013-04-07 23:35:00,
2013-04-07 18:36:00,51.8,37.0,29.95,ESE,106,3.0,5.0,57,0.00,,,0.00,105,Wunderground v.1.15,2013-04-07 23:36:00,
2013-04-07 18:37:00,51.8,37.0,29.95,ESE,106,3.0,5.0,57,0.00,,,0.00,104,Wunderground v.1.15,2013-04-07 23:37:00,
2013-04-07 18:40:00,51.8,37.0,29.95,ESE,106,2.0,2.0,57,0.00,,,0.00,88,Wunderground v.1.15,2013-04-07 23:40:00,
2013-04-07 18:43:00,51.7,36.9,29.95,SSE,148,2.0,5.0,57,0.00,,,0.00,74,Wunderground v.1.15,2013-04-07 23:43:00,
2013-04-07 18:46:00,51.7,37.4,29.95,SSE,148,2.0,5.0,58,0.00,,,0.00,56,Wunderground v.1.15,2013-04-07 23:46:00,
2013-04-07 18:47:00,51.7,37.4,29.95,SSE,148,1.0,5.0,58,0.00,,,0.00,53,Wunderground v.1.15,2013-04-07 23:47:00,
2013-04-07 18:51:00,51.6,37.3,29.95,SE,137,1.0,1.0,58,0.00,,,0.00,42,Wunderground v.1.15,2013-04-07 23:51:00,
2013-04-07 18:53:00,51.5,37.2,29.95,SE,137,0.0,2.0,58,0.00,,,0.00,37,Wunderground v.1.15,2013-04-07 23:53:00,
2013-04-07 18:54:00,51.5,37.2,29.95,SE,136,0.0,2.0,58,0.00,,,0.00,35,Wunderground v.1.15,2013-04-07 23:54:00,
2013-04-07 18:56:00,51.5,37.2,29.95,SE,136,1.0,2.0,58,0.00,,,0.00,32,Wunderground v.1.15,2013-04-07 23:56:00,
2013-04-07 18:59:00,51.3,37.0,29.95,SE,136,1.0,2.0,58,0.00,,,0.00,26,Wunderground v.1.15,2013-04-07 23:59:00,
2013-04-07 19:05:00,51.0,37.2,29.95,East,96,1.0,1.0,59,0.00,,,0.00,21,Wunderground v.1.15,2013-04-08 00:05:00,
2013-04-07 19:06:00,50.9,37.1,29.95,East,96,1.0,1.0,59,0.00,,,0.00,21,Wunderground v.1.15,2013-04-08 00:06:00,
2013-04-07 19:08:00,50.7,36.9,29.95,East,96,0.0,1.0,59,0.00,,,0.00,19,Wunderground v.1.15,2013-04-08 00:08:00,
2013-04-07 19:13:00,50.5,36.7,29.95,East,96,0.0,0.0,59,0.00,,,0.00,16,Wunderground v.1.15,2013-04-08 00:13:00,
2013-04-07 19:14:00,50.4,37.0,29.95,East,96,0.0,0.0,60,0.00,,,0.00,14,Wunderground v.1.15,2013-04-08 00:14:00,
2013-04-07 19:16:00,50.1,37.2,29.95,East,96,0.0,0.0,61,0.00,,,0.00,14,Wunderground v.1.15,2013-04-08 00:16:00,
2013-04-07 19:17:00,50.0,37.1,29.95,East,96,0.0,0.0,61,0.00,,,0.00,14,Wunderground v.1.15,2013-04-08 00:17:00,
2013-04-07 19:20:00,49.8,36.9,29.95,East,96,0.0,0.0,61,0.00,,,0.00,12,Wunderground v.1.15,2013-04-08 00:20:00,
2013-04-07 19:22:00,49.5,36.6,29.95,East,96,0.0,0.0,61,0.00,,,0.00,11,Wunderground v.1.15,2013-04-08 00:22:00,
2013-04-07 19:25:00,49.0,36.9,29.94,East,96,0.0,0.0,63,0.00,,,0.00,9,Wunderground v.1.15,2013-04-08 00:25:00,
2013-04-07 19:28:00,48.4,37.2,29.94,East,96,0.0,0.0,65,0.00,,,0.00,7,Wunderground v.1.15,2013-04-08 00:28:00,
2013-04-07 19:30:00,48.0,36.8,29.94,East,96,0.0,0.0,65,0.00,,,0.00,5,Wunderground v.1.15,2013-04-08 00:30:00,
2013-04-07 19:31:00,47.8,37.0,29.94,East,96,0.0,0.0,66,0.00,,,0.00,5,Wunderground v.1.15,2013-04-08 00:31:00,
2013-04-07 19:32:00,47.6,36.8,29.94,East,96,0.0,0.0,66,0.00,,,0.00,5,Wunderground v.1.15,2013-04-08 00:32:00,
2013-04-07 19:36:00,46.9,36.5,29.94,East,96,0.0,0.0,67,0.00,,,0.00,0,Wunderground v.1.15,2013-04-08 00:36:00,
2013-04-07 19:39:00,46.4,36.4,29.94,East,96,0.0,0.0,68,0.00,,,0.00,0,Wunderground v.1.15,2013-04-08 00:39:00,
2013-04-07 19:41:00,46.0,36.0,29.95,East,96,0.0,0.0,68,0.00,,,0.00,0,Wunderground v.1.15,2013-04-08 00:41:00,
2013-04-07 19:43:00,45.6,36.0,29.94,East,96,0.0,0.0,69,0.00,,,0.00,0,Wunderground v.1.15,2013-04-08 00:43:00,
2013-04-07 19:44:00,45.5,35.9,29.94,East,96,0.0,0.0,69,0.00,,,0.00,0,Wunderground v.1.15,2013-04-08 00:44:00,
2013-04-07 19:50:00,45.1,36.3,29.94,East,96,0.0,0.0,71,0.00,,,0.00,0,Wunderground v.1.15,2013-04-08 00:50:00,
2013-04-07 19:53:00,44.9,36.1,29.94,East,96,0.0,0.0,71,0.00,,,0.00,0,Wunderground v.1.15,2013-04-08 00:53:00,
2013-04-07 19:54:00,44.8,36.0,29.94,East,96,0.0,0.0,71,0.00,,,0.00,0,Wunderground v.1.15,2013-04-08 00:54:00,
2013-04-07 19:55:00,44.7,35.9,29.94,East,96,0.0,0.0,71,0.00,,,0.00,0,Wunderground v.1.15,2013-04-08 00:55:00,
2013-04-07 19:57:00,44.5,35.7,29.94,East,96,0.0,0.0,71,0.00,,,0.00,0,Wunderground v.1.15,2013-04-08 00:57:00,
2013-04-07 20:01:00,44.0,35.6,29.94,East,96,0.0,0.0,72,0.00,,,0.00,0,Wunderground v.1.15,2013-04-08 01:01:00,
2013-04-07 20:02:00,43.9,35.8,29.94,East,96,0.0,0.0,73,0.00,,,0.00,0,Wunderground v.1.15,2013-04-08 01:02:00,
2013-04-07 20:06:00,43.4,35.7,29.94,East,96,0.0,0.0,74,0.00,,,0.00,0,Wunderground v.1.15,2013-04-08 01:06:00,
2013-04-07 20:07:00,43.2,35.5,29.94,East,96,0.0,0.0,74,0.00,,,0.00,0,Wunderground v.1.15,2013-04-08 01:07:00,
2013-04-07 20:08:00,43.1,35.4,29.94,East,96,0.0,2.0,74,0.00,,,0.00,0,Wunderground v.1.15,2013-04-08 01:08:00,
2013-04-07 20:12:00,42.7,35.3,29.94,ENE,65,0.0,1.0,75,0.00,,,0.00,0,Wunderground v.1.15,2013-04-08 01:12:00,
2013-04-07 20:14:00,42.4,35.0,29.94,ENE,65,0.0,1.0,75,0.00,,,0.00,0,Wunderground v.1.15,2013-04-08 01:14:00,
2013-04-07 20:15:00,42.3,34.9,29.94,ENE,65,0.0,1.0,75,0.00,,,0.00,0,Wunderground v.1.15,2013-04-08 01:15:00,
2013-04-07 20:18:00,41.9,34.9,29.94,ENE,65,0.0,1.0,76,0.00,,,0.00,0,Wunderground v.1.15,2013-04-08 01:18:00,
2013-04-07 20:20:00,41.6,34.9,29.94,ENE,65,0.0,0.0,77,0.00,,,0.00,0,Wunderground v.1.15,2013-04-08 01:20:00,
2013-04-07 20:21:00,41.5,34.8,29.94,ENE,65,0.0,0.0,77,0.00,,,0.00,0,Wunderground v.1.15,2013-04-08 01:21:00,
2013-04-07 20:23:00,41.3,34.6,29.94,ENE,65,0.0,0.0,77,0.00,,,0.00,0,Wunderground v.1.15,2013-04-08 01:23:00,
2013-04-07 20:26:00,41.0,34.7,29.94,ENE,65,0.0,0.0,78,0.00,,,0.00,0,Wunderground v.1.15,2013-04-08 01:26:00,
2013-04-07 20:27:00,41.0,34.7,29.94,ENE,65,0.0,0.0,78,0.00,,,0.00,0,Wunderground v.1.15,2013-04-08 01:27:00,
2013-04-07 20:30:00,40.7,34.4,29.94,ENE,65,0.0,0.0,78,0.00,,,0.00,0,Wunderground v.1.15,2013-04-08 01:30:00,
2013-04-07 20:32:00,40.4,34.1,29.94,ENE,65,0.0,0.0,78,0.00,,,0.00,0,Wunderground v.1.15,2013-04-08 01:32:00,
2013-04-07 20:33:00,40.5,34.5,29.94,ENE,65,0.0,0.0,79,0.00,,,0.00,0,Wunderground v.1.15,2013-04-08 01:33:00,
2013-04-07 20:35:00,40.4,34.4,29.94,ENE,65,0.0,0.0,79,0.00,,,0.00,0,Wunderground v.1.15,2013-04-08 01:35:00,
2013-04-07 20:36:00,40.3,34.6,29.94,ENE,65,0.0,0.0,80,0.00,,,0.00,0,Wunderground v.1.15,2013-04-08 01:36:00,
2013-04-07 20:41:00,40.2,34.5,29.94,ENE,65,0.0,0.0,80,0.00,,,0.00,0,Wunderground v.1.15,2013-04-08 01:41:00,
2013-04-07 20:42:00,40.1,34.4,29.94,ENE,65,0.0,0.0,80,0.00,,,0.00,0,Wunderground v.1.15,2013-04-08 01:42:00,
2013-04-07 20:45:00,40.0,34.6,29.94,ENE,65,0.0,0.0,81,0.00,,,0.00,0,Wunderground v.1.15,2013-04-08 01:45:00,
2013-04-07 20:46:00,40.0,34.6,29.94,ENE,65,0.0,0.0,81,0.00,,,0.00,0,Wunderground v.1.15,2013-04-08 01:46:00,
2013-04-07 20:47:00,40.0,34.6,29.94,ENE,65,0.0,0.0,81,0.00,,,0.00,0,Wunderground v.1.15,2013-04-08 01:47:00,
2013-04-07 20:49:00,40.2,34.8,29.95,ENE,65,0.0,0.0,81,0.00,,,0.00,0,Wunderground v.1.15,2013-04-08 01:49:00,
2013-04-07 20:53:00,40.0,34.6,29.94,ENE,65,0.0,0.0,81,0.00,,,0.00,0,Wunderground v.1.15,2013-04-08 01:53:00,
2013-04-07 20:54:00,39.9,34.5,29.94,ENE,65,0.0,0.0,81,0.00,,,0.00,0,Wunderground v.1.15,2013-04-08 01:54:00,
2013-04-07 20:59:00,39.8,34.4,29.94,ENE,65,0.0,0.0,81,0.00,,,0.00,0,Wunderground v.1.15,2013-04-08 01:59:00,
2013-04-07 21:00:00,39.8,34.4,29.94,ENE,65,0.0,0.0,81,0.00,,,0.00,0,Wunderground v.1.15,2013-04-08 02:00:00,
2013-04-07 21:04:00,39.3,34.0,29.95,ENE,65,0.0,0.0,81,0.00,,,0.00,0,Wunderground v.1.15,2013-04-08 02:04:00,
2013-04-07 21:06:00,39.0,34.0,29.94,ENE,65,0.0,0.0,82,0.00,,,0.00,0,Wunderground v.1.15,2013-04-08 02:06:00,
2013-04-07 21:07:00,38.9,33.9,29.94,ENE,65,0.0,0.0,82,0.00,,,0.00,0,Wunderground v.1.15,2013-04-08 02:07:00,
2013-04-07 21:10:00,38.8,34.1,29.94,ENE,65,0.0,0.0,83,0.00,,,0.00,0,Wunderground v.1.15,2013-04-08 02:10:00,
2013-04-07 21:11:00,38.7,34.3,29.94,ENE,65,0.0,0.0,84,0.00,,,0.00,0,Wunderground v.1.15,2013-04-08 02:11:00,
2013-04-07 21:13:00,38.7,34.3,29.95,ENE,65,0.0,0.0,84,0.00,,,0.00,0,Wunderground v.1.15,2013-04-08 02:13:00,
2013-04-07 21:15:00,38.7,34.3,29.94,ENE,65,0.0,0.0,84,0.00,,,0.00,0,Wunderground v.1.15,2013-04-08 02:15:00,
2013-04-07 21:17:00,38.7,34.3,29.94,ENE,65,0.0,0.0,84,0.00,,,0.00,0,Wunderground v.1.15,2013-04-08 02:17:00,
2013-04-07 21:20:00,38.6,34.2,29.94,ENE,65,0.0,0.0,84,0.00,,,0.00,0,Wunderground v.1.15,2013-04-08 02:20:00,
2013-04-07 21:21:00,38.6,34.2,29.94,ENE,65,0.0,0.0,84,0.00,,,0.00,0,Wunderground v.1.15,2013-04-08 02:21:00,
2013-04-07 21:22:00,38.6,34.2,29.94,ENE,65,0.0,0.0,84,0.00,,,0.00,0,Wunderground v.1.15,2013-04-08 02:22:00,
2013-04-07 21:23:00,38.5,34.1,29.94,ENE,65,0.0,0.0,84,0.00,,,0.00,0,Wunderground v.1.15,2013-04-08 02:23:00,
2013-04-07 21:26:00,38.4,34.0,29.94,ENE,65,0.0,0.0,84,0.00,,,0.00,0,Wunderground v.1.15,2013-04-08 02:26:00,
2013-04-07 21:28:00,38.3,34.2,29.94,ENE,65,0.0,0.0,85,0.00,,,0.00,0,Wunderground v.1.15,2013-04-08 02:28:00,
2013-04-07 21:31:00,38.1,33.7,29.94,ENE,65,0.0,0.0,84,0.00,,,0.00,0,Wunderground v.1.15,2013-04-08 02:31:00,
2013-04-07 21:33:00,37.9,33.8,29.94,ENE,65,0.0,0.0,85,0.00,,,0.00,0,Wunderground v.1.15,2013-04-08 02:33:00,
2013-04-07 21:35:00,37.8,33.7,29.94,ENE,65,0.0,0.0,85,0.00,,,0.00,0,Wunderground v.1.15,2013-04-08 02:35:00,
2013-04-07 21:36:00,37.8,33.7,29.94,ENE,65,0.0,0.0,85,0.00,,,0.00,0,Wunderground v.1.15,2013-04-08 02:36:00,
2013-04-07 21:40:00,37.7,33.9,29.94,ENE,65,0.0,0.0,86,0.00,,,0.00,0,Wunderground v.1.15,2013-04-08 02:40:00,
2013-04-07 21:41:00,37.7,33.9,29.94,ENE,65,0.0,0.0,86,0.00,,,0.00,0,Wunderground v.1.15,2013-04-08 02:41:00,
2013-04-07 21:46:00,37.5,33.7,29.94,ENE,65,0.0,0.0,86,0.00,,,0.00,0,Wunderground v.1.15,2013-04-08 02:46:00,
2013-04-07 21:47:00,37.5,33.7,29.94,ENE,65,0.0,0.0,86,0.00,,,0.00,0,Wunderground v.1.15,2013-04-08 02:47:00,
2013-04-07 21:50:00,37.4,33.9,29.94,ENE,65,0.0,0.0,87,0.00,,,0.00,0,Wunderground v.1.15,2013-04-08 02:50:00,
2013-04-07 21:53:00,37.5,34.0,29.94,ENE,65,0.0,0.0,87,0.00,,,0.00,0,Wunderground v.1.15,2013-04-08 02:53:00,
2013-04-07 21:54:00,37.5,34.0,29.94,ENE,65,0.0,0.0,87,0.00,,,0.00,0,Wunderground v.1.15,2013-04-08 02:54:00,
2013-04-07 21:59:00,37.5,34.0,29.93,ENE,65,0.0,0.0,87,0.00,,,0.00,0,Wunderground v.1.15,2013-04-08 02:59:00,
2013-04-07 22:01:00,37.5,34.0,29.93,ENE,65,0.0,0.0,87,0.00,,,0.00,0,Wunderground v.1.15,2013-04-08 03:01:00,
2013-04-07 22:02:00,37.5,34.0,29.93,ENE,65,0.0,0.0,87,0.00,,,0.00,0,Wunderground v.1.15,2013-04-08 03:02:00,
2013-04-07 22:07:00,37.5,34.0,29.93,ENE,65,0.0,0.0,87,0.00,,,0.00,0,Wunderground v.1.15,2013-04-08 03:07:00,
2013-04-07 22:08:00,37.5,34.0,29.93,ENE,65,0.0,0.0,87,0.00,,,0.00,0,Wunderground v.1.15,2013-04-08 03:08:00,
2013-04-07 22:09:00,37.5,34.0,29.93,ENE,65,0.0,0.0,87,0.00,,,0.00,0,Wunderground v.1.15,2013-04-08 03:09:00,
2013-04-07 22:14:00,37.4,33.9,29.93,ENE,65,0.0,1.0,87,0.00,,,0.00,0,Wunderground v.1.15,2013-04-08 03:14:00,
2013-04-07 22:16:00,37.3,33.8,29.93,ENE,65,0.0,2.0,87,0.00,,,0.00,0,Wunderground v.1.15,2013-04-08 03:16:00,
2013-04-07 22:18:00,37.3,33.8,29.93,ENE,65,1.0,2.0,87,0.00,,,0.00,0,Wunderground v.1.15,2013-04-08 03:18:00,
2013-04-07 22:20:00,37.4,34.2,29.93,ENE,65,1.0,1.0,88,0.00,,,0.00,0,Wunderground v.1.15,2013-04-08 03:20:00,
2013-04-07 22:25:00,38.4,34.9,29.92,ENE,66,1.0,1.0,87,0.00,,,0.00,0,Wunderground v.1.15,2013-04-08 03:25:00,
2013-04-07 22:26:00,38.7,35.2,29.92,ENE,66,1.0,1.0,87,0.00,,,0.00,0,Wunderground v.1.15,2013-04-08 03:26:00,
2013-04-07 22:27:00,38.7,34.9,29.92,ENE,66,0.0,1.0,86,0.00,,,0.00,0,Wunderground v.1.15,2013-04-08 03:27:00,
2013-04-07 22:31:00,38.7,34.9,29.92,ENE,66,0.0,0.0,86,0.00,,,0.00,0,Wunderground v.1.15,2013-04-08 03:31:00,
2013-04-07 22:32:00,38.8,35.0,29.91,ENE,66,0.0,0.0,86,0.00,,,0.00,0,Wunderground v.1.15,2013-04-08 03:32:00,
2013-04-07 22:34:00,39.2,35.4,29.91,ENE,65,0.0,0.0,86,0.00,,,0.00,0,Wunderground v.1.15,2013-04-08 03:34:00,
2013-04-07 22:38:00,39.8,35.4,29.91,ENE,65,0.0,0.0,84,0.00,,,0.00,0,Wunderground v.1.15,2013-04-08 03:38:00,
2013-04-07 22:40:00,40.2,35.8,29.91,ENE,66,0.0,1.0,84,0.00,,,0.00,0,Wunderground v.1.15,2013-04-08 03:40:00,
2013-04-07 22:43:00,40.7,35.6,29.92,SSW,213,1.0,3.0,82,0.00,,,0.00,0,Wunderground v.1.15,2013-04-08 03:43:00,
2013-04-07 22:45:00,40.6,35.5,29.91,SW,233,1.0,3.0,82,0.00,,,0.00,0,Wunderground v.1.15,2013-04-08 03:45:00,
2013-04-07 22:49:00,40.7,35.6,29.92,SW,233,1.0,3.0,82,0.00,,,0.00,0,Wunderground v.1.15,2013-04-08 03:49:00,
2013-04-07 22:52:00,40.7,35.6,29.92,SW,233,1.0,1.0,82,0.00,,,0.00,0,Wunderground v.1.15,2013-04-08 03:52:00,
2013-04-07 22:55:00,40.9,35.8,29.92,SW,233,0.0,1.0,82,0.00,,,0.00,0,Wunderground v.1.15,2013-04-08 03:55:00,
2013-04-07 22:59:00,40.4,35.0,29.92,WSW,242,0.0,2.0,81,0.00,,,0.00,0,Wunderground v.1.15,2013-04-08 03:59:00,
2013-04-07 23:00:00,40.3,35.2,29.92,WSW,242,0.0,0.0,82,0.00,,,0.00,0,Wunderground v.1.15,2013-04-08 04:00:00,
2013-04-07 23:01:00,40.3,35.2,29.92,WSW,242,0.0,0.0,82,0.00,,,0.00,0,Wunderground v.1.15,2013-04-08 04:01:00,
2013-04-07 23:03:00,40.1,35.0,29.92,WSW,242,0.0,0.0,82,0.00,,,0.00,0,Wunderground v.1.15,2013-04-08 04:03:00,
2013-04-07 23:05:00,39.8,34.8,29.92,WSW,242,0.0,0.0,82,0.00,,,0.00,0,Wunderground v.1.15,2013-04-08 04:05:00,
2013-04-07 23:06:00,39.7,35.0,29.92,WSW,242,0.0,0.0,83,0.00,,,0.00,0,Wunderground v.1.15,2013-04-08 04:06:00,
2013-04-07 23:08:00,39.6,34.9,29.92,WSW,242,0.0,0.0,83,0.00,,,0.00,0,Wunderground v.1.15,2013-04-08 04:08:00,
2013-04-07 23:09:00,39.7,35.3,29.91,WSW,242,0.0,0.0,84,0.00,,,0.00,0,Wunderground v.1.15,2013-04-08 04:09:00,
2013-04-07 23:11:00,39.8,35.4,29.91,WSW,242,0.0,0.0,84,0.00,,,0.00,0,Wunderground v.1.15,2013-04-08 04:11:00,
2013-04-07 23:14:00,40.0,35.6,29.91,WSW,242,0.0,0.0,84,0.00,,,0.00,0,Wunderground v.1.15,2013-04-08 04:14:00,
2013-04-07 23:16:00,40.0,35.6,29.91,WSW,242,0.0,0.0,84,0.00,,,0.00,0,Wunderground v.1.15,2013-04-08 04:16:00,
2013-04-07 23:19:00,40.0,35.6,29.91,WSW,242,0.0,0.0,84,0.00,,,0.00,0,Wunderground v.1.15,2013-04-08 04:19:00,
2013-04-07 23:21:00,40.0,35.6,29.91,WSW,242,0.0,1.0,84,0.00,,,0.00,0,Wunderground v.1.15,2013-04-08 04:21:00,
2013-04-07 23:22:00,40.0,35.6,29.91,WSW,242,0.0,1.0,84,0.00,,,0.00,0,Wunderground v.1.15,2013-04-08 04:22:00,
2013-04-07 23:23:00,39.9,35.5,29.91,WSW,242,0.0,1.0,84,0.00,,,0.00,0,Wunderground v.1.15,2013-04-08 04:23:00,
2013-04-07 23:24:00,39.9,35.5,29.91,WSW,242,0.0,2.0,84,0.00,,,0.00,0,Wunderground v.1.15,2013-04-08 04:24:00,
2013-04-07 23:27:00,39.7,35.3,29.91,WSW,242,1.0,2.0,84,0.00,,,0.00,0,Wunderground v.1.15,2013-04-08 04:27:00,
2013-04-07 23:31:00,40.6,36.1,29.90,WSW,242,1.0,1.0,84,0.00,,,0.00,0,Wunderground v.1.15,2013-04-08 04:31:00,
2013-04-07 23:32:00,40.9,36.4,29.90,WSW,242,1.0,1.0,84,0.00,,,0.00,0,Wunderground v.1.15,2013-04-08 04:32:00,
2013-04-07 23:34:00,41.5,36.7,29.90,WSW,242,1.0,1.0,83,0.00,,,0.00,0,Wunderground v.1.15,2013-04-08 04:34:00,
2013-04-07 23:35:00,41.8,36.7,29.90,WSW,242,1.0,1.0,82,0.00,,,0.00,0,Wunderground v.1.15,2013-04-08 04:35:00,
2013-04-07 23:37:00,42.2,36.8,29.90,WSW,242,0.0,1.0,81,0.00,,,0.00,0,Wunderground v.1.15,2013-04-08 04:37:00,
2013-04-07 23:39:00,42.2,36.8,29.90,WSW,242,0.0,1.0,81,0.00,,,0.00,0,Wunderground v.1.15,2013-04-08 04:39:00,
2013-04-07 23:40:00,42.2,36.8,29.90,WSW,242,0.0,0.0,81,0.00,,,0.00,0,Wunderground v.1.15,2013-04-08 04:40:00,
2013-04-07 23:41:00,42.2,36.8,29.89,WSW,242,0.0,0.0,81,0.00,,,0.00,0,Wunderground v.1.15,2013-04-08 04:41:00,
2013-04-07 23:44:00,42.4,37.0,29.89,NNE,30,0.0,3.0,81,0.00,,,0.00,0,Wunderground v.1.15,2013-04-08 04:44:00,
2013-04-07 23:46:00,42.6,36.9,29.89,NNE,30,1.0,3.0,80,0.00,,,0.00,0,Wunderground v.1.15,2013-04-08 04:46:00,
2013-04-07 23:47:00,42.7,37.0,29.89,NNE,30,1.0,3.0,80,0.00,,,0.00,0,Wunderground v.1.15,2013-04-08 04:47:00,
2013-04-07 23:50:00,42.9,36.8,29.89,NNE,30,1.0,2.0,79,0.00,,,0.00,0,Wunderground v.1.15,2013-04-08 04:50:00,
2013-04-07 23:52:00,42.6,36.2,29.89,WSW,240,1.0,5.0,78,0.00,,,0.00,0,Wunderground v.1.15,2013-04-08 04:52:00,
2013-04-07 23:53:00,42.5,36.4,29.90,WSW,240,2.0,5.0,79,0.00,,,0.00,0,Wunderground v.1.15,2013-04-08 04:53:00,
2013-04-07 23:58:00,42.7,36.6,29.89,WSW,240,1.0,5.0,79,0.00,,,0.00,0,Wunderground v.1.15,2013-04-08 04:58:00,
2013-04-07 23:59:00,42.7,36.6,29.89,WSW,240,1.0,5.0,79,0.00,,,0.00,0,Wunderground v.1.15,2013-04-08 04:59:00,